GFSGBSN_prec_cthk_000.txt.gz
RH
24 18 23 27 28 30 27 29 28 27 27 26 22 21 26 36 41 45 48 50 51 52 50 49 52 51 50 52 54 58 52 48 49 48 52 54 56 52 54 57 58 53 54 53 51 49 52
31 23 18 21 26 34 32 27 29 28 26 29 25 20 22 32 43 48 53 55 55 55 55 55 57 59 59 59 55 54 60 54 54 57 56 59 60 56 53 58 62 62 56 55 55 52 51
37 29 24 22 20 31 34 32 33 30 28 28 29 23 21 27 40 48 53 55 57 58 56 58 59 61 65 61 61 61 62 62 56 54 59 65 62 67 62 59 61 67 71 61 53 54 56
45 36 29 26 25 26 32 34 35 36 35 31 29 29 22 26 37 45 53 64 58 62 63 64 61 64 67 63 61 61 59 55 53 52 53 59 66 65 67 70 66 68 75 78 51 55 53
48 48 38 30 28 35 35 33 35 39 39 38 34 33 30 29 33 41 55 61 61 64 66 69 64 69 68 63 62 62 66 62 59 57 56 52 58 62 70 70 79 73 73 66 61 56 59
55 51 47 39 31 38 39 38 34 36 40 41 39 38 39 28 34 39 48 60 65 64 68 72 71 74 66 69 69 65 66 67 66 62 62 64 63 60 59 70 66 66 75 63 64 55 58
57 54 60 51 39 33 38 40 40 39 38 43 43 38 43 34 35 42 47 53 58 64 68 68 68 69 74 74 71 69 66 69 69 67 66 66 73 63 52 54 55 63 67 73 61 63 62
41 65 64 64 53 41 35 39 48 49 44 42 45 40 43 38 39 44 47 52 63 67 69 72 72 77 77 82 77 73 74 75 73 71 70 75 74 48 50 53 63 61 74 76 67 68 63
25 46 71 77 71 55 38 40 51 50 51 46 44 44 45 43 45 49 48 56 67 68 72 70 73 78 83 85 83 82 82 81 77 77 75 73 48 58 64 59 65 60 74 76 69 68 67
22 29 55 75 77 70 55 47 50 52 53 58 46 47 45 48 52 50 53 58 62 69 75 67 73 80 87 89 86 88 88 89 85 75 79 82 60 65 62 59 56 59 48 66 79 82 77
31 27 35 61 64 71 70 58 57 61 61 69 51 50 48 49 58 62 55 58 62 75 79 70 82 85 87 91 90 86 89 92 87 81 85 78 65 62 60 54 52 47 50 61 77 95 79
44 39 23 42 83 93 79 69 65 65 64 69 65 52 55 57 60 63 59 59 67 81 78 78 89 90 91 90 93 93 87 91 88 89 85 72 76 71 64 61 60 48 54 66 97 96 91
52 59 48 29 71 95 99 84 73 72 69 72 72 58 60 63 66 58 59 66 77 76 70 92 92 91 90 94 93 96 91 90 87 92 92 91 73 80 84 91 76 72 68 97 98 98 85
66 69 63 39 60 97 99 90 75 75 73 79 73 64 66 71 74 68 63 73 77 57 79 92 94 95 96 92 94 96 93 91 84 83 92 88 75 72 77 86 83 81 81 99 94 94 71
63 73 69 60 77 97 99 95 78 83 78 83 76 67 71 81 78 71 68 76 62 79 89 97 97 97 85 91 96 93 86 95 80 80 98 96 86 79 75 85 90 83 96 89 98 60 63
70 75 74 61 87 98 98 97 83 87 81 84 78 72 76 87 84 76 73 71 70 85 95 97 96 70 78 87 89 85 76 73 80 84 84 89 97 79 87 95 84 87 79 98 94 68 68
69 74 74 64 96 98 99 94 82 95 85 88 78 75 76 89 85 78 75 66 82 91 96 97 72 67 68 77 74 67 66 71 71 71 80 94 96 93 90 88 89 98 97 94 89 70 61
63 70 78 89 97 98 98 90 89 98 95 90 77 78 78 85 84 76 76 71 92 95 96 95 71 66 61 76 74 74 80 82 65 72 80 96 98 98 85 76 84 88 90 90 73 70 61
63 77 87 97 98 99 97 95 91 94 94 83 78 79 82 83 81 78 74 86 95 96 96 92 63 55 58 61 68 66 73 71 69 75 84 96 98 97 92 97 94 96 89 75 74 65 67
60 83 93 98 97 98 98 98 98 93 87 76 79 83 83 84 80 81 79 88 97 96 95 83 60 59 60 57 61 80 68 70 69 67 81 96 94 98 94 81 77 85 79 69 71 68 60
60 77 90 97 95 99 96 96 98 97 81 77 77 76 77 82 79 77 83 87 97 98 94 82 64 60 65 64 66 58 70 70 72 69 80 96 98 93 75 69 72 74 73 71 67 63 61
43 70 89 96 96 97 97 92 97 98 81 80 78 75 80 83 80 77 75 79 97 97 97 85 72 74 72 63 58 57 56 69 68 75 76 89 93 83 74 70 69 70 69 65 64 63 60
34 55 89 92 97 96 95 98 99 95 77 77 75 75 80 80 79 75 71 74 93 96 95 90 79 79 78 69 71 62 57 60 72 69 76 83 86 78 73 64 64 64 62 60 60 58 58
30 46 74 87 94 96 94 98 99 91 79 78 77 81 87 84 74 63 63 67 92 96 96 94 86 88 81 73 80 74 74 69 71 76 69 73 78 79 72 63 73 57 54 52 55 56 53
38 54 67 84 88 95 96 98 95 79 77 77 80 84 87 85 82 62 54 75 92 97 98 96 94 87 85 80 86 82 96 85 78 77 79 78 78 81 82 77 69 60 54 52 52 53 51
33 52 65 81 89 92 96 98 92 85 77 80 82 84 87 85 86 66 59 90 96 98 98 97 95 89 89 91 88 91 89 90 90 89 84 82 81 88 83 79 77 62 54 51 51 56 52
29 47 62 83 84 87 91 95 92 87 82 81 83 82 87 85 88 71 67 91 96 98 98 97 96 95 93 87 87 88 88 81 88 86 90 93 92 94 92 87 76 62 59 54 58 60 52
28 45 54 79 83 84 90 98 95 89 81 81 81 81 84 85 88 74 68 90 96 98 97 94 95 96 96 91 88 90 83 85 87 83 88 87 88 88 91 89 82 66 67 63 62 58 56
28 41 58 80 91 90 94 97 99 88 85 80 80 80 83 87 89 76 70 90 92 96 97 96 95 92 90 86 81 80 77 75 78 90 81 85 77 80 78 70 68 67 69 66 65 62 63

GFSGBSN_prec_cthk_003.txt.gz
RH
47 37 29 22 22 27 30 33 34 32 29 27 26 24 20 20 27 32 39 44 46 46 47 46 48 49 49 51 53 56 51 51 49 48 47 54 55 54 53 53 51 48 45 48 40 40 41
46 47 42 33 25 27 23 31 35 32 35 31 27 28 22 18 23 31 39 46 48 47 48 48 48 51 53 57 50 49 51 51 53 54 52 51 56 57 58 56 58 57 54 45 46 44 43
46 52 47 46 36 27 26 27 32 35 35 35 31 29 26 20 19 26 37 45 51 47 47 50 51 51 54 54 53 57 60 61 60 55 56 61 56 65 64 58 54 56 58 54 45 45 46
42 48 55 50 48 35 28 31 34 32 34 37 38 34 29 25 20 24 32 44 49 55 53 54 55 57 57 54 51 57 60 63 61 58 62 60 66 62 66 67 58 58 58 61 53 53 45
40 41 50 54 55 46 38 31 37 38 34 36 39 38 32 32 26 29 32 42 49 53 55 56 57 58 56 54 53 53 59 61 59 58 58 55 60 68 65 71 71 67 67 67 62 58 61
21 29 42 56 50 58 47 39 34 45 45 47 39 41 38 36 30 34 36 42 48 55 55 55 55 58 53 56 56 56 63 66 65 63 63 60 56 60 64 74 73 71 73 66 65 54 66
23 22 25 42 66 62 65 52 40 38 47 50 50 49 41 40 35 36 40 44 48 49 51 49 49 48 51 56 61 64 66 73 73 71 71 63 67 66 66 65 72 70 69 70 59 59 65
27 25 20 29 48 65 66 64 55 40 43 48 52 53 53 42 38 38 45 45 44 48 52 52 53 54 55 63 67 71 73 76 76 76 75 72 64 66 61 60 63 68 74 68 69 69 75
29 32 33 23 35 53 76 72 66 48 42 50 51 57 57 50 40 43 47 48 50 54 58 53 48 53 57 66 75 78 80 78 79 83 80 72 62 64 67 66 67 65 71 65 64 70 75
30 32 32 36 20 43 56 85 87 68 54 56 58 61 57 53 46 44 51 50 53 59 61 52 55 59 66 77 78 82 83 84 86 84 86 75 72 67 74 69 65 65 51 58 63 76 85
34 36 34 43 44 26 66 91 96 88 66 64 64 61 58 50 53 51 50 54 59 61 65 56 61 62 74 83 80 82 86 90 87 86 91 76 72 75 76 59 69 55 50 57 67 81 92
38 39 39 53 55 47 29 70 95 98 91 77 70 64 61 51 58 60 56 58 63 64 64 62 60 73 82 89 89 87 90 94 96 95 94 82 81 80 68 63 68 64 63 62 68 79 96
35 45 59 62 62 64 44 41 89 98 84 90 81 72 63 59 66 63 59 57 68 67 54 64 71 83 87 92 88 86 94 97 98 99 97 93 86 82 81 77 64 75 74 83 88 87 73
36 52 66 71 72 82 68 49 65 96 94 92 92 84 69 66 71 63 59 65 67 54 55 63 78 87 95 87 81 84 91 99 97 96 95 94 85 81 69 70 65 66 73 74 80 68 55
40 53 76 78 80 87 67 56 87 94 98 93 98 84 70 75 79 68 65 68 61 60 61 77 92 97 94 81 82 90 91 98 88 87 86 92 81 72 64 62 76 65 75 51 84 67 73
45 58 80 79 79 84 70 81 89 98 98 99 96 86 81 84 83 75 73 62 66 59 73 90 97 95 78 77 89 94 90 82 81 76 82 85 91 88 83 79 77 72 53 77 86 90 81
42 60 79 92 83 80 89 95 94 99 97 98 88 83 92 92 85 78 70 72 68 62 80 94 96 96 77 79 84 87 71 65 66 73 84 86 93 88 95 79 72 90 86 66 72 90 98
39 58 76 85 80 98 91 93 98 96 95 97 98 76 94 90 82 73 74 75 66 76 87 96 96 91 77 78 84 81 67 66 75 74 81 84 96 97 87 75 69 84 94 64 74 84 92
39 62 64 77 75 99 96 97 91 87 96 98 98 93 89 89 79 73 76 76 71 84 92 95 95 85 73 72 86 70 60 61 67 75 87 90 96 98 96 98 94 90 84 74 66 83 96
35 48 57 64 93 97 98 93 94 93 91 98 95 96 94 91 73 74 79 77 79 87 94 97 91 82 77 67 67 69 65 66 74 74 80 89 97 98 94 90 80 84 79 91 96 98 69
46 37 50 79 96 98 96 93 97 97 99 97 94 96 84 78 72 77 79 77 82 91 94 96 91 83 75 64 59 64 69 70 76 77 82 86 97 98 91 89 85 77 84 95 98 88 63
45 36 53 73 87 94 92 92 98 93 98 89 85 95 89 81 75 83 82 80 85 95 96 95 94 83 81 71 59 60 69 72 75 81 80 88 97 98 95 88 91 89 89 88 81 71 64
44 43 44 70 86 92 96 92 94 88 98 96 89 81 81 77 76 86 83 72 65 81 94 93 93 91 84 75 73 67 59 68 73 70 75 86 97 98 94 86 88 88 77 77 70 66 64
45 42 42 59 80 88 93 98 98 98 87 85 85 90 94 79 77 87 82 74 68 76 92 92 94 90 86 76 84 74 73 68 71 73 69 73 87 90 89 78 82 68 65 67 64 63 60
49 42 38 58 80 90 92 96 98 99 96 92 86 78 82 80 87 88 84 65 56 82 97 95 92 84 89 90 89 90 87 67 72 77 70 70 83 84 88 83 70 59 55 56 59 58 55
45 39 38 58 75 86 86 95 97 98 99 88 85 82 80 82 88 86 84 77 68 90 97 96 97 91 94 89 89 94 90 83 80 73 76 73 76 81 82 78 75 58 52 53 53 59 54
47 45 42 57 69 80 85 95 98 95 93 86 76 77 82 84 86 88 88 73 82 95 98 98 98 94 92 88 92 92 85 82 86 80 78 81 84 84 84 84 71 61 55 54 61 58 52
44 54 44 56 68 89 86 94 97 97 93 81 74 81 84 82 87 90 88 74 89 96 98 97 98 97 97 92 98 94 84 85 87 80 75 80 89 87 86 86 82 64 61 57 59 56 56
48 34 35 49 67 80 82 93 98 97 93 83 76 83 82 82 85 91 92 76 87 95 98 97 98 96 92 88 86 88 81 88 84 88 80 84 76 80 77 73 67 65 65 64 62 60 60

GFSGBSN_prec_cthk_006.txt.gz
RH
52 54 57 50 50 42 29 33 28 35 39 36 35 30 28 22 22 26 30 35 37 41 43 42 41 42 40 45 47 50 51 50 48 50 50 51 54 51 47 46 44 48 41 39 39 39 40
47 51 57 52 55 50 46 30 34 29 36 38 37 34 31 26 21 24 27 33 39 44 43 43 42 44 46 47 42 43 50 54 57 53 52 51 49 50 53 50 49 46 48 46 43 40 40
19 33 46 45 55 66 55 46 35 34 32 36 36 39 35 30 23 23 25 30 40 47 44 41 43 43 45 44 43 43 46 51 54 56 54 56 51 59 61 56 52 52 51 51 46 45 47
23 20 20 39 41 60 66 53 46 37 38 41 40 38 41 33 28 23 24 28 36 48 48 49 46 48 46 44 42 46 49 51 55 58 58 64 62 66 67 65 64 62 57 60 48 52 49
23 23 23 17 33 35 51 66 57 48 40 43 46 44 44 39 34 28 31 29 36 43 49 50 53 52 48 44 45 45 49 51 53 56 56 67 66 65 67 72 73 71 67 60 55 52 57
26 25 25 26 19 33 44 60 65 59 50 50 48 49 47 44 37 33 38 36 39 44 47 51 53 54 46 44 44 45 48 52 55 57 54 64 66 67 72 72 69 66 66 58 58 59 58
26 26 26 26 26 19 34 39 61 70 61 52 55 51 55 52 44 36 41 42 43 44 45 42 43 44 42 44 44 46 48 55 59 61 64 64 70 67 62 64 68 69 71 66 65 66 64
25 34 27 27 33 31 19 46 58 64 72 66 57 57 60 57 55 46 40 43 41 42 41 40 42 45 48 52 51 50 51 58 62 68 71 76 73 66 64 61 65 68 70 65 64 68 69
26 26 35 31 31 28 36 25 69 77 70 70 62 62 60 63 61 52 45 47 46 46 47 43 42 48 49 54 57 57 59 64 69 73 76 81 68 63 66 68 69 64 66 67 70 67 65
34 35 34 36 37 38 36 31 39 73 87 81 70 65 63 65 60 55 51 55 55 52 55 45 47 51 54 58 61 63 68 71 77 78 83 83 75 70 70 71 72 69 62 63 62 69 75
36 40 39 40 41 45 54 46 27 79 99 94 85 78 75 62 57 52 54 58 57 56 52 45 53 58 60 62 65 68 75 80 84 83 87 82 77 78 74 71 73 68 65 64 66 70 77
38 42 39 43 50 65 59 57 41 59 88 97 99 97 82 71 58 56 59 63 66 66 62 54 58 61 66 69 74 77 84 86 85 86 83 82 84 83 77 73 69 78 80 76 74 77 82
42 43 40 43 67 78 70 67 56 47 85 97 99 96 86 79 60 61 69 71 68 70 48 58 61 65 69 75 82 89 87 80 87 89 90 96 92 87 87 86 82 81 84 95 95 88 75
48 47 42 54 78 85 85 86 76 64 80 94 97 98 94 79 65 69 74 72 71 50 53 58 62 68 75 79 90 80 78 83 86 92 96 96 93 95 81 78 83 80 78 89 92 89 68
54 50 48 60 83 90 94 89 80 66 77 92 97 95 91 90 70 72 73 76 60 51 54 62 69 77 85 91 81 80 86 86 81 84 95 94 92 77 75 77 81 82 89 65 89 83 86
54 50 46 71 88 96 98 92 79 79 87 90 92 98 94 93 78 78 79 68 64 59 66 65 75 83 90 83 74 83 86 73 80 79 89 83 82 67 75 78 76 72 67 83 89 92 82
49 49 59 67 84 86 95 88 80 82 86 97 99 95 98 92 86 82 77 74 71 68 66 70 80 93 89 72 71 74 71 64 69 67 74 79 86 84 82 81 82 80 82 77 65 71 89
55 42 62 68 74 78 95 86 97 92 92 97 98 98 96 90 84 84 83 77 75 73 66 76 86 95 84 72 76 78 70 62 60 67 76 78 96 94 85 81 82 77 67 65 72 61 68
55 47 49 61 61 65 98 96 94 93 91 98 96 97 98 94 81 83 83 80 76 74 75 83 94 92 78 74 80 74 66 59 62 75 81 87 95 98 95 90 87 87 71 68 66 65 83
54 54 39 44 56 78 96 97 99 98 98 98 97 96 98 92 90 86 80 77 80 74 80 87 96 90 79 75 72 76 79 69 72 77 84 92 96 96 94 98 90 85 68 67 83 74 76
55 53 46 34 57 71 90 95 97 98 96 97 97 95 89 91 88 87 77 75 80 77 88 92 97 92 84 79 71 76 77 74 78 85 93 95 98 98 96 97 98 97 82 85 95 80 72
55 55 50 35 53 74 87 91 95 93 96 98 96 94 91 87 90 91 77 77 79 80 89 95 97 92 85 75 63 65 69 76 79 90 96 96 97 98 97 92 85 88 85 81 86 92 90
48 54 50 40 43 69 85 92 97 98 98 98 97 95 87 89 91 87 79 80 82 78 79 91 95 93 90 82 72 75 73 72 76 85 93 96 97 98 98 92 91 94 86 89 95 95 94
45 56 48 52 50 68 86 88 96 97 97 97 99 95 95 97 92 79 81 83 82 76 70 78 91 95 89 84 76 82 77 74 70 76 82 87 92 95 99 97 91 71 84 87 92 93 92
41 47 55 54 51 66 75 86 94 97 97 99 92 87 82 86 83 76 80 83 81 72 59 75 94 93 94 88 83 88 78 78 68 76 74 77 85 92 93 86 74 68 74 81 77 79 77
43 42 47 54 49 61 79 92 94 98 97 96 98 93 85 89 84 77 81 82 83 76 68 91 96 96 94 91 93 86 82 72 72 75 71 73 77 84 86 84 75 60 60 62 65 71 65
44 49 47 39 46 58 88 93 94 97 98 98 98 98 89 92 83 79 83 82 81 69 83 95 97 99 98 94 96 91 89 78 77 73 75 75 76 80 82 84 73 62 57 60 65 61 54
48 50 44 34 48 61 79 88 98 98 99 98 96 92 89 81 76 84 84 84 82 77 95 97 98 98 97 98 96 93 84 83 77 73 70 73 78 77 78 83 80 64 57 56 57 54 56
40 43 50 32 43 62 72 84 94 95 97 98 97 88 82 76 77 89 84 90 82 78 94 97 98 98 95 96 88 87 86 89 81 84 74 75 68 76 73 72 65 65 64 62 58 58 59

GFSGBSN_prec_cthk_009.txt.gz
RH
22 25 34 48 55 66 61 54 48 40 35 31 43 43 38 34 29 26 30 33 38 41 44 44 42 39 38 48 51 46 43 43 46 49 52 56 56 54 51 48 45 48 42 41 41 41 43
21 18 24 29 37 40 56 70 64 52 44 35 31 46 39 37 34 25 29 31 36 39 44 47 45 46 45 44 37 42 45 45 45 48 50 52 53 51 55 53 51 47 47 44 44 44 42
21 22 21 18 18 30 31 63 72 66 55 46 37 35 45 40 38 32 27 32 36 38 42 47 45 43 44 42 38 37 42 46 46 47 48 47 51 55 59 57 53 53 51 47 45 44 45
24 24 27 25 22 18 25 40 64 73 65 55 44 43 42 43 43 36 27 31 36 38 46 49 48 47 44 42 39 40 40 45 46 48 49 52 57 59 67 66 64 64 61 58 43 44 49
20 24 25 26 26 25 25 25 41 67 73 64 55 52 47 45 44 40 32 33 34 36 45 49 53 50 49 45 43 40 42 44 46 48 52 54 59 59 62 69 71 67 64 63 59 51 52
23 23 25 25 27 26 26 25 29 39 57 73 63 56 60 52 49 44 36 43 41 40 46 49 50 52 47 45 43 42 41 46 48 49 53 53 59 62 65 68 68 67 76 68 66 58 60
26 25 24 24 25 27 27 26 27 33 57 70 74 65 68 68 53 52 42 48 45 47 47 42 45 45 44 44 44 43 41 44 48 49 54 53 61 64 62 68 67 74 74 75 68 65 62
25 26 30 27 29 26 27 28 31 24 39 62 76 76 73 68 69 56 54 48 44 45 46 44 45 45 43 45 43 45 45 49 52 55 57 59 59 58 64 66 67 68 72 70 64 63 63
32 35 36 37 29 30 34 33 32 34 32 43 83 81 77 79 65 67 56 53 53 50 46 40 39 42 42 47 49 49 49 51 55 60 61 62 56 57 62 64 70 71 74 68 69 63 60
37 38 37 39 36 38 39 45 45 42 34 55 68 77 88 83 80 67 62 60 57 61 60 44 46 46 45 51 50 47 51 53 60 64 68 67 62 67 68 68 72 73 71 71 69 70 68
38 46 46 46 38 45 53 56 58 50 40 57 96 93 88 87 77 75 57 64 66 64 63 48 53 52 54 52 54 57 59 62 65 71 75 72 72 73 73 68 74 73 71 72 73 76 74
43 44 50 53 46 47 60 67 72 58 45 70 92 98 99 92 83 76 70 63 71 68 66 58 59 58 60 57 60 61 66 70 73 80 80 76 74 75 71 70 73 78 82 81 81 81 79
46 52 53 54 52 50 81 83 81 67 52 66 89 98 98 98 86 75 65 69 76 71 51 59 56 61 59 65 66 69 75 78 82 89 81 80 75 75 75 75 77 82 89 97 97 94 80
50 55 55 56 53 69 89 94 89 73 65 64 91 94 94 98 97 94 68 72 73 51 55 57 60 65 63 62 68 75 80 81 73 78 87 86 85 78 76 76 84 87 84 92 90 94 83
58 59 63 54 54 73 96 96 91 85 68 69 87 96 97 98 96 91 75 73 61 51 53 61 65 69 69 69 73 79 77 60 60 78 89 92 89 77 75 81 89 96 97 69 81 83 98
53 58 67 61 70 78 94 92 96 91 85 81 89 94 98 98 92 89 83 62 57 55 58 60 66 65 68 74 82 81 62 56 65 67 79 84 87 75 77 84 82 82 82 97 97 96 96
54 55 63 63 67 80 87 92 97 94 84 96 97 95 96 99 92 95 81 64 60 60 64 70 68 71 73 80 85 65 56 55 55 58 67 82 86 79 80 77 73 84 85 88 86 85 84
55 55 60 59 68 69 82 80 93 95 91 91 90 91 98 98 96 93 84 62 61 66 72 75 71 75 80 89 85 69 65 62 56 57 71 75 83 84 76 82 80 84 78 80 98 78 68
52 54 61 52 63 61 68 80 89 92 98 96 93 98 98 98 88 88 75 67 77 78 80 75 76 83 92 88 78 70 70 60 64 63 74 82 93 94 96 96 96 93 83 72 70 85 72
52 54 59 55 52 50 68 81 83 85 97 98 97 99 98 98 89 86 72 80 86 82 78 77 84 91 93 84 71 69 74 69 66 73 82 91 98 97 91 93 99 98 79 66 68 78 61
49 48 59 56 41 50 67 77 85 96 94 88 95 93 89 87 88 76 86 86 87 87 83 87 89 96 94 83 73 73 73 80 81 87 92 97 97 97 94 94 97 91 82 66 63 52 62
45 50 60 54 60 49 69 77 91 97 96 94 98 92 90 87 87 82 86 83 79 85 91 90 93 94 95 87 69 66 68 79 82 91 95 97 97 99 97 97 93 91 87 78 66 60 66
47 47 59 56 56 53 67 79 94 95 97 99 97 97 90 92 89 88 83 82 80 85 88 85 95 96 93 87 75 70 73 80 85 90 97 98 98 98 94 98 94 93 76 74 75 73 78
47 52 56 53 56 49 65 83 95 97 98 98 98 97 97 95 86 83 88 88 82 89 86 79 84 93 91 90 79 74 79 79 83 85 92 98 99 98 97 99 98 92 82 82 80 82 86
45 50 50 57 49 48 70 82 96 98 98 98 98 97 91 89 88 89 90 87 92 90 87 79 74 74 89 94 88 80 89 83 77 82 80 89 93 98 98 94 83 88 97 95 93 92 85
49 44 49 49 47 45 70 82 90 93 92 92 96 98 96 96 92 91 96 85 92 93 90 77 70 85 97 97 94 85 81 76 79 74 75 82 84 85 88 90 76 69 84 88 90 87 80
52 42 35 44 43 38 66 85 92 93 92 92 98 96 94 88 85 84 85 81 83 90 84 74 89 97 98 97 95 86 79 73 77 82 73 81 83 83 82 86 75 65 66 71 84 68 68
47 48 42 40 44 33 55 80 88 93 95 94 93 96 89 89 88 90 83 81 88 90 85 87 98 98 98 98 95 87 81 79 73 72 73 72 71 75 78 82 79 66 63 65 61 58 60
42 49 34 32 41 32 46 75 84 93 95 98 97 99 98 92 91 87 81 84 87 91 79 93 97 98 97 96 90 88 81 83 77 76 73 74 65 71 70 70 64 66 64 59 58 57 60

GFSGBSN_prec_cthk_012.txt.gz
RH
22 21 18 16 18 29 33 45 58 73 66 52 50 39 47 48 41 37 27 30 33 38 45 46 44 42 49 53 54 49 46 46 48 56 60 57 55 52 48 47 45 48 43 40 38 37 37
17 20 24 22 19 18 21 24 38 49 74 71 59 55 51 44 48 40 33 28 33 37 43 47 49 50 47 48 43 51 50 49 48 53 56 59 59 57 55 55 53 50 46 46 43 40 39
22 21 21 23 24 21 20 20 20 30 49 76 71 63 54 50 50 43 39 28 33 37 40 44 48 50 49 47 44 42 48 48 47 50 49 48 49 50 52 53 50 50 50 47 45 39 41
19 21 23 22 21 24 25 23 23 19 39 66 82 70 61 60 57 46 43 35 35 39 42 44 47 51 47 44 42 43 43 47 48 47 48 47 49 52 55 55 57 59 59 60 50 45 42
22 23 25 25 25 26 26 26 26 25 23 51 64 77 71 63 69 55 47 39 35 41 41 49 50 52 50 46 45 42 43 42 45 47 48 48 51 52 55 58 58 59 61 62 61 54 54
28 26 26 25 26 27 27 26 26 27 26 25 49 81 79 71 72 66 51 46 46 41 45 49 45 51 46 45 45 47 45 47 46 47 50 52 53 54 57 59 60 56 61 59 62 61 59
28 26 26 27 25 26 27 29 28 30 25 27 38 65 77 75 77 77 59 57 53 51 47 41 43 42 39 44 46 46 46 47 48 49 52 51 55 57 55 55 56 59 65 66 61 59 62
38 38 37 40 34 32 30 34 35 36 34 28 27 38 59 89 81 79 70 56 51 45 47 44 42 41 42 44 47 47 45 46 49 52 52 54 53 50 52 57 60 61 67 65 59 60 57
41 37 43 46 46 39 34 35 39 41 44 43 31 36 66 89 92 82 72 64 56 52 47 40 40 43 44 46 47 45 45 48 51 56 56 56 48 45 53 59 63 65 68 68 64 57 53
32 36 39 41 41 43 42 42 44 52 55 52 38 27 70 80 99 85 77 74 62 57 59 45 45 42 41 47 47 44 47 49 55 56 59 58 52 55 59 63 66 68 64 67 69 73 72
34 40 44 46 49 50 49 48 65 70 59 66 42 31 58 85 99 95 76 77 66 58 71 51 54 53 52 46 47 49 51 53 59 59 60 58 59 61 66 66 72 69 69 73 74 79 79
43 44 49 56 57 53 56 71 85 77 71 68 48 35 74 91 97 97 94 81 69 68 70 59 60 63 60 55 56 58 58 59 61 62 61 60 64 69 70 73 77 81 83 85 85 87 83
42 43 50 55 68 64 61 78 86 88 87 73 54 43 83 98 99 98 94 84 78 73 54 61 60 61 62 62 62 61 65 69 67 73 74 72 68 72 73 79 83 86 90 94 95 94 76
42 46 55 55 67 63 69 82 92 97 93 81 62 68 90 90 97 98 95 90 84 57 56 57 56 59 61 63 63 66 69 69 72 77 75 68 63 65 65 72 82 88 89 94 90 89 82
45 48 56 56 68 65 81 74 86 89 89 80 66 84 92 91 99 94 93 87 68 53 55 60 60 60 63 64 65 69 70 72 68 70 67 67 65 62 70 78 86 97 96 74 88 80 94
40 51 56 56 67 63 70 81 83 94 89 91 74 90 86 95 98 99 91 83 67 50 55 57 58 55 62 65 68 74 73 63 68 55 60 67 73 58 62 73 76 80 90 96 97 96 92
46 59 58 55 64 64 74 78 86 81 80 79 90 88 95 95 99 99 94 79 68 59 53 58 58 60 59 66 69 73 68 62 55 53 58 65 75 70 74 70 66 85 88 93 94 97 93
48 59 54 56 70 57 62 79 79 80 94 85 92 92 96 95 98 98 93 78 73 64 60 61 61 59 63 69 75 80 80 60 58 61 70 70 80 82 78 77 73 74 73 75 85 77 82
57 60 52 63 70 53 48 79 79 88 93 90 91 91 97 98 96 88 84 83 77 65 63 63 67 69 69 74 82 86 72 62 67 68 71 77 88 94 93 92 90 94 88 85 80 82 76
56 56 54 68 72 57 44 67 77 89 91 93 93 99 98 96 95 90 88 84 73 66 69 71 78 74 77 81 88 78 73 68 69 71 77 86 94 95 92 93 97 98 98 95 94 90 64
56 53 54 60 63 60 46 71 80 86 85 95 95 98 96 88 89 92 87 80 71 81 78 79 81 78 84 93 94 85 74 71 79 86 91 96 96 98 95 93 98 97 98 96 84 70 71
52 52 54 61 70 57 55 80 90 96 89 98 98 99 93 89 91 93 88 82 81 90 90 85 81 83 91 96 88 79 71 76 80 86 93 97 94 97 97 98 95 89 84 75 70 65 62
50 54 55 52 66 50 58 79 98 95 96 95 95 97 89 92 92 86 75 77 90 87 86 83 85 91 95 95 93 83 78 80 78 90 97 98 98 98 91 97 98 93 75 68 62 62 62
48 57 45 45 59 56 56 83 94 92 94 93 95 95 87 90 84 81 84 87 85 81 80 85 85 92 93 93 92 83 80 79 79 86 90 98 98 99 96 97 98 95 84 76 68 67 72
44 48 50 32 50 53 53 79 95 95 95 98 98 96 92 93 90 86 90 89 88 84 88 87 81 76 81 84 92 91 86 80 79 80 86 93 99 97 98 97 90 93 93 78 74 74 72
43 41 47 36 46 49 47 71 83 89 91 98 98 97 98 93 89 86 88 93 91 94 90 91 90 75 74 85 93 92 85 79 78 77 75 89 89 94 92 95 87 79 95 90 84 90 73
38 37 38 31 30 46 43 59 77 90 93 97 98 97 97 93 86 86 88 91 85 90 90 93 83 78 88 94 96 94 91 77 78 81 81 83 86 88 86 84 81 70 76 80 83 74 71
41 33 39 30 34 39 39 53 71 85 92 98 95 98 97 94 93 91 88 88 84 82 88 93 86 92 96 96 99 98 91 79 78 75 78 75 79 78 75 81 73 64 69 68 61 58 68
36 33 35 36 29 36 40 52 66 81 90 91 96 98 94 95 89 86 91 88 87 88 93 93 86 96 96 97 95 97 93 87 82 78 74 77 68 72 73 69 65 66 63 58 56 57 60

GFSGBSN_prec_cthk_015.txt.gz
RH
21 20 19 20 20 19 17 16 19 25 47 54 66 67 64 48 62 47 44 38 26 31 40 42 42 41 50 56 55 53 52 50 51 60 62 59 55 49 47 44 44 48 40 38 36 35 33
22 24 25 25 24 23 25 23 19 18 18 34 47 61 68 66 60 56 45 42 29 31 39 46 46 48 47 55 53 53 53 51 50 54 62 60 57 57 54 53 51 48 48 45 42 39 37
23 25 24 26 27 26 27 27 27 22 22 19 28 56 64 72 66 70 55 47 36 33 38 42 45 47 51 51 46 44 49 52 51 55 56 61 63 59 54 53 52 50 51 45 43 40 41
28 28 26 27 28 27 27 27 25 27 27 26 22 46 61 73 72 67 69 50 43 37 42 44 43 46 46 48 46 47 48 52 53 54 51 50 51 53 53 54 54 56 57 55 47 48 45
25 30 28 29 29 28 27 27 26 26 27 27 26 31 61 75 80 75 75 63 47 44 45 51 47 47 45 49 50 46 46 51 52 52 51 50 51 52 55 58 57 56 54 56 50 48 49
35 38 35 33 28 29 31 31 30 30 35 33 27 24 45 75 81 79 78 73 54 46 49 52 49 47 42 46 48 49 47 47 47 50 53 52 51 53 54 57 56 53 58 56 53 49 49
41 38 39 39 40 34 33 33 30 34 33 37 34 29 23 71 81 89 84 73 69 55 50 43 44 44 41 44 45 49 50 52 52 51 53 53 54 54 52 52 51 55 58 58 55 52 51
34 37 37 41 40 41 46 38 36 40 34 37 44 41 33 35 87 96 91 73 64 47 47 45 47 47 45 42 43 48 49 51 53 54 53 54 53 49 51 52 55 55 58 55 50 49 51
35 43 39 38 37 42 44 44 42 43 45 47 58 51 37 30 89 96 84 81 69 60 51 42 44 45 45 44 44 46 48 50 51 54 52 51 48 47 52 56 56 56 58 56 57 57 52
43 41 39 33 37 44 51 55 53 65 69 69 62 60 46 31 68 87 90 90 76 67 56 46 44 44 46 49 48 45 46 46 50 51 53 52 48 51 55 58 59 62 57 60 63 68 61
41 36 38 37 43 49 54 62 61 80 84 74 66 66 47 36 43 80 95 97 89 67 58 51 54 53 50 47 44 48 48 49 53 52 53 50 52 55 58 56 62 62 62 66 69 74 73
34 38 38 41 49 52 64 63 75 87 88 94 87 69 51 38 63 98 98 98 92 81 67 60 59 60 56 52 53 54 53 54 55 56 57 54 54 56 59 60 64 67 73 76 80 83 81
37 39 38 43 54 57 68 71 79 89 95 98 87 78 56 44 62 97 99 98 96 86 56 60 59 65 61 61 62 60 63 64 64 66 64 60 61 63 58 56 53 58 75 82 87 90 76
40 37 43 54 57 64 70 73 78 82 92 90 94 81 52 54 88 99 99 98 94 71 64 54 55 64 63 59 61 63 64 64 61 65 70 70 65 58 54 53 58 64 67 76 84 81 74
38 43 51 57 56 63 72 73 71 85 94 98 98 80 58 57 96 99 98 98 84 69 61 56 60 62 64 61 61 62 63 63 61 66 74 71 65 57 55 58 64 73 75 66 89 84 95
43 50 58 58 56 68 69 73 69 89 89 95 96 79 63 81 96 98 98 95 80 69 60 55 59 59 63 64 65 65 64 59 63 62 63 72 71 55 55 61 66 78 79 86 87 91 87
45 49 58 57 63 66 63 65 78 85 86 95 92 72 65 75 90 98 98 96 80 75 65 59 55 59 57 61 63 67 64 59 61 62 69 70 70 60 64 67 67 86 94 97 93 91 88
42 47 54 56 66 63 58 54 79 90 92 99 98 86 95 95 97 97 98 88 80 79 70 61 55 56 59 62 64 65 69 67 63 65 69 67 75 72 70 70 78 83 86 87 96 88 91
41 45 53 55 62 61 60 52 70 87 95 98 93 99 99 96 98 97 94 85 82 82 73 60 58 58 60 63 70 69 72 70 70 66 72 75 82 85 81 83 84 95 89 89 90 88 85
38 43 46 60 66 64 46 54 73 75 86 98 98 99 97 95 94 90 90 88 84 81 75 62 61 61 66 71 68 74 80 72 66 70 75 80 84 85 80 81 92 98 94 95 98 97 80
39 44 45 50 61 68 51 56 70 82 92 94 98 98 97 95 96 89 86 84 87 84 72 64 68 71 73 77 78 81 82 73 74 73 80 88 88 90 88 86 93 98 92 89 88 84 86
40 41 42 44 52 59 55 64 79 90 98 99 98 97 95 91 94 85 83 83 81 79 66 72 77 76 77 83 80 88 78 76 73 78 83 90 90 96 93 95 97 97 88 82 76 77 74
40 39 41 43 48 68 59 69 84 92 95 97 98 98 96 92 95 86 87 84 70 72 84 85 84 82 87 85 85 87 83 80 77 79 87 94 94 96 90 93 98 98 90 75 72 71 72
36 36 39 39 52 56 62 65 76 85 88 92 98 97 96 93 86 86 87 82 81 90 91 90 87 87 86 85 88 86 82 84 80 88 87 92 98 99 96 98 97 98 87 80 78 70 69
34 34 32 36 30 47 61 56 79 88 94 95 97 98 95 89 88 84 78 77 85 85 84 84 85 84 83 86 87 85 84 86 77 82 85 89 95 98 98 97 92 92 87 83 81 81 76
29 34 29 33 26 47 55 49 66 82 94 97 98 98 92 88 81 80 86 88 89 89 89 89 87 87 83 76 77 85 86 81 78 78 78 84 87 95 96 97 96 85 91 85 81 82 74
26 28 26 26 30 35 47 48 58 73 87 97 97 98 97 91 87 81 83 87 90 93 96 93 93 93 85 80 81 90 92 83 82 74 80 82 83 87 89 93 84 80 80 84 79 78 75
20 22 19 21 24 30 42 50 56 63 81 94 97 97 97 95 92 86 80 83 88 86 85 89 93 89 89 93 94 95 95 87 81 71 74 75 80 81 76 81 81 73 77 77 70 72 75
16 21 20 24 25 27 37 48 51 62 78 87 93 95 97 97 90 85 85 84 85 78 81 89 93 90 93 97 96 97 92 89 78 76 72 77 70 71 71 67 64 68 68 65 62 62 70

GFSGBSN_prec_cthk_021.txt.gz
RH
21 22 23 25 27 27 31 32 32 30 27 22 19 20 18 23 45 53 56 65 75 60 48 36 34 37 49 57 63 54 52 49 46 53 53 47 41 43 40 36 37 37 31 29 32 34 33
23 25 27 27 27 28 28 29 31 30 31 27 27 24 26 18 33 49 62 62 71 69 53 38 37 40 53 57 60 61 56 54 53 59 63 60 55 49 46 44 41 42 39 37 37 33 33
27 30 33 29 29 32 35 34 32 30 29 27 24 27 21 22 31 41 58 64 69 70 60 43 40 47 52 54 53 54 62 58 59 58 70 69 65 60 55 49 47 44 42 37 33 34 36
35 34 34 33 33 39 40 38 37 40 41 36 33 28 26 28 24 27 42 70 71 74 70 46 40 50 52 51 53 52 59 64 65 67 77 76 72 70 63 56 49 45 43 41 35 35 35
33 34 35 35 38 41 38 45 45 47 47 48 42 33 27 27 26 27 39 56 73 78 75 58 48 47 49 46 52 56 56 64 67 67 73 77 74 68 63 59 52 48 44 43 43 41 42
35 36 35 36 38 38 41 50 49 45 51 54 53 39 38 34 35 31 36 60 88 84 83 80 60 52 45 46 50 56 60 68 66 64 66 69 70 64 60 57 52 48 50 45 42 41 41
37 35 35 35 41 39 49 50 52 55 60 65 63 50 59 53 47 39 37 71 93 98 87 73 54 47 51 47 50 55 60 67 69 67 65 65 65 59 54 51 49 47 45 43 40 38 35
37 36 35 36 40 45 49 55 61 68 66 72 66 64 78 62 52 46 44 68 95 98 91 77 66 54 53 50 54 55 59 64 65 68 68 66 65 56 52 48 47 46 44 41 36 34 34
37 37 39 43 45 50 55 63 70 66 72 75 76 83 78 67 63 43 42 83 98 99 96 88 74 54 54 53 53 57 58 62 67 66 63 62 57 51 51 50 48 45 44 42 43 40 35
38 39 44 44 48 54 59 70 67 70 78 87 86 92 87 68 54 53 45 88 98 98 92 88 77 56 51 53 54 56 59 61 62 63 60 61 55 51 47 48 45 45 44 45 46 47 46
38 46 44 50 48 57 62 69 68 79 83 83 89 95 98 81 65 60 73 91 95 98 97 87 82 68 51 50 54 56 55 57 58 56 57 58 52 52 50 45 45 47 46 46 46 51 52
39 45 43 47 47 57 66 70 64 76 69 88 88 95 96 82 60 54 61 96 99 99 97 88 80 70 52 52 53 55 54 54 54 53 54 53 50 48 46 45 45 48 49 52 54 57 60
41 44 41 46 49 59 69 67 61 68 73 86 89 88 88 75 54 62 89 99 98 97 83 87 75 70 56 53 56 54 58 56 52 61 57 51 49 48 44 47 51 54 58 61 66 70 49
40 43 41 46 52 66 66 66 58 67 73 87 90 86 78 60 59 76 88 98 97 90 81 74 71 65 62 54 53 54 56 57 51 49 53 54 58 48 52 52 55 58 58 53 52 43 37
42 42 42 46 49 59 62 56 54 66 71 77 86 91 93 73 54 75 84 93 95 78 78 73 73 68 69 59 58 54 52 52 47 48 55 55 55 51 54 53 51 59 67 55 62 50 56
44 42 42 44 49 56 61 51 55 62 73 83 93 89 98 84 62 82 94 98 89 79 76 73 67 64 65 61 61 56 54 50 51 51 52 57 62 51 54 56 57 58 60 70 74 74 66
38 42 40 42 48 55 63 43 52 68 80 85 92 98 93 79 65 88 95 99 88 83 83 76 64 58 57 59 60 61 60 56 55 55 55 56 55 58 59 58 52 62 67 78 72 77 81
37 42 39 40 41 49 60 39 58 73 84 88 92 93 80 62 74 88 98 98 85 84 88 79 69 57 56 57 61 60 57 55 55 53 56 58 59 64 56 55 60 62 70 77 91 78 84
37 35 38 33 37 55 57 41 67 85 94 90 86 70 69 85 85 93 97 95 89 90 87 79 71 61 58 57 60 56 54 54 52 54 59 64 66 65 70 68 67 69 72 76 82 90 86
35 35 35 32 39 40 51 47 75 89 98 87 85 73 68 83 90 87 96 91 90 89 83 75 71 65 58 57 56 56 57 57 57 59 66 65 62 70 66 66 73 91 83 86 93 94 79
36 34 35 29 37 41 51 48 68 83 95 84 73 77 83 82 88 85 91 87 90 84 81 76 70 66 61 60 58 59 59 61 64 67 67 68 79 77 79 78 82 86 88 90 97 92 90
30 33 28 22 32 41 48 46 60 79 91 84 71 81 80 75 77 83 86 92 90 83 74 69 65 68 64 60 61 63 62 66 67 68 70 75 86 89 90 84 83 89 88 89 90 90 84
30 26 23 20 30 39 43 47 63 71 79 80 75 77 80 75 74 77 81 81 84 80 77 69 65 61 64 66 65 68 69 72 74 74 75 86 94 94 91 78 81 85 90 89 86 86 86
31 27 22 18 19 34 39 47 55 60 73 72 70 70 71 75 71 73 73 74 75 71 74 69 69 68 73 71 70 71 74 77 74 77 81 89 95 98 94 90 90 87 83 89 92 85 80
33 28 23 20 19 28 36 44 49 50 71 77 71 73 73 70 73 72 71 72 70 67 73 75 77 78 75 74 75 72 76 78 72 79 83 88 95 96 96 87 75 83 83 84 87 85 81
35 29 20 22 11 14 30 41 44 48 60 71 72 78 79 81 71 69 69 70 70 75 80 79 79 79 80 76 73 72 68 70 73 84 82 84 89 94 97 96 90 80 78 81 84 88 80
37 31 19 16 12 8 16 24 36 46 54 72 76 76 78 75 72 68 69 72 69 76 82 83 87 88 87 83 80 73 70 70 70 77 81 80 85 89 88 91 74 70 72 76 82 79 78
38 34 22 18 16 11 8 18 29 43 44 59 76 81 78 74 75 72 65 73 80 83 85 88 90 92 93 85 81 82 86 76 76 73 73 69 75 78 78 80 80 65 67 70 72 74 75
39 36 31 20 17 17 12 16 16 29 47 51 70 75 81 79 76 72 73 74 79 81 85 86 89 89 92 89 89 87 88 80 79 79 73 70 63 69 66 66 63 67 68 68 67 68 71

GFSGBSN_prec_cthk_024.txt.gz
RH
24 24 25 28 24 25 26 29 28 30 31 32 31 25 27 24 24 21 28 40 52 62 75 64 43 36 42 53 56 58 55 53 56 51 42 39 38 36 36 32 33 35 34 31 29 27 33
28 34 35 35 34 32 32 37 38 35 34 31 34 34 31 26 24 24 29 39 52 57 79 72 49 40 45 54 59 58 58 56 57 58 60 51 43 42 44 40 43 42 39 35 30 29 29
33 33 36 36 34 36 40 39 38 45 51 44 42 38 36 34 27 27 23 38 57 60 74 70 60 46 50 49 57 57 61 57 61 67 61 63 59 48 49 49 50 46 47 42 35 29 31
35 34 37 38 37 37 41 38 43 52 53 50 45 52 47 36 28 25 25 33 49 67 73 76 67 50 52 48 51 53 56 61 59 66 73 78 73 64 59 54 50 47 47 47 30 30 31
31 38 38 37 36 37 41 42 50 51 58 58 58 59 58 50 34 32 36 27 50 75 82 71 69 58 49 44 48 51 52 61 67 71 82 91 80 73 68 61 58 54 52 47 42 37 37
39 38 39 38 39 44 44 50 52 59 61 69 68 66 63 52 58 48 47 36 46 61 81 86 78 70 48 43 44 51 56 62 70 72 80 89 82 75 70 67 62 55 56 51 48 48 42
32 41 40 41 44 43 48 55 57 67 73 68 68 71 68 69 69 60 58 44 49 82 82 81 75 66 47 44 43 49 56 66 69 71 77 79 76 70 66 61 58 55 57 54 50 44 42
39 42 46 46 49 51 54 59 69 76 70 70 77 78 77 84 71 61 56 49 63 82 86 88 83 77 62 47 48 50 54 63 69 75 74 73 71 62 61 58 55 54 54 52 47 42 39
42 43 48 44 49 49 57 62 71 70 71 78 83 83 90 92 69 63 49 41 83 82 95 98 78 79 64 50 50 50 55 60 68 73 76 73 66 63 61 58 56 53 52 49 46 41 38
45 44 45 44 45 48 59 64 70 73 74 80 83 92 98 98 88 66 52 46 91 99 99 98 91 82 64 58 51 54 57 61 67 76 75 76 68 62 60 58 52 51 45 45 43 45 47
45 44 43 44 47 50 66 65 68 61 68 73 86 94 92 98 91 71 54 60 95 98 97 95 95 82 63 62 50 58 62 62 64 69 73 70 65 63 58 51 48 47 45 44 44 47 48
45 45 42 46 47 52 62 58 60 57 63 71 83 85 86 89 89 61 58 90 98 98 97 95 92 82 66 65 55 56 62 60 65 67 65 67 59 55 53 48 47 47 46 45 49 51 62
42 47 42 44 44 53 58 57 54 57 62 70 74 85 95 84 83 55 64 97 97 97 96 97 87 77 66 62 57 57 59 60 62 69 72 63 58 51 47 48 46 49 49 65 70 70 59
41 46 41 44 45 55 52 57 57 56 65 69 80 89 93 82 75 59 71 88 95 92 95 84 82 82 72 59 56 59 59 59 55 53 59 62 59 49 44 46 50 53 56 66 63 61 52
41 42 41 41 45 53 47 54 51 55 70 75 87 87 94 82 86 58 78 91 97 88 84 81 84 86 81 67 56 61 60 57 52 50 57 59 56 47 50 49 51 60 65 55 65 52 60
43 39 41 40 40 51 51 49 49 66 73 87 89 90 94 85 73 70 87 94 98 85 75 73 79 72 76 67 55 55 60 52 54 49 49 54 58 51 54 54 54 58 53 68 71 73 61
40 39 40 34 41 47 43 49 67 91 92 85 81 93 85 73 91 92 94 98 96 85 81 76 65 65 64 60 58 57 55 51 49 48 49 52 55 61 61 61 56 59 63 63 66 73 78
43 38 35 34 42 39 47 56 80 98 91 80 82 82 69 69 86 89 97 99 91 89 82 72 65 61 60 55 61 57 54 57 53 56 57 59 62 69 63 53 55 58 64 69 80 73 75
40 39 31 32 40 37 46 56 84 96 81 66 76 86 73 70 91 97 99 94 88 91 84 75 69 61 57 63 66 63 61 59 59 58 61 59 67 68 71 63 62 65 69 72 76 78 80
38 37 31 24 40 37 41 52 77 90 82 59 66 73 77 90 87 94 99 94 96 91 86 77 68 60 59 62 61 62 63 60 56 58 56 60 64 67 69 68 71 83 79 77 83 91 82
34 31 25 25 37 34 41 53 62 82 75 60 67 79 81 91 91 94 96 91 89 83 81 76 76 67 63 63 62 62 60 62 60 60 63 65 73 70 70 69 74 81 82 84 92 90 90
35 29 25 19 25 29 38 48 52 66 62 65 69 68 73 73 77 80 83 92 87 81 76 69 72 71 64 62 61 58 58 59 62 67 68 67 77 83 84 81 81 85 83 84 86 91 90
36 31 26 23 24 28 34 44 44 55 63 67 66 64 70 67 71 75 80 81 81 75 73 67 64 66 69 67 62 63 62 65 68 70 72 80 89 94 92 79 83 89 85 87 90 88 90
39 33 26 24 18 15 28 40 44 46 57 64 65 64 68 67 65 70 69 69 72 69 69 64 60 61 67 68 65 68 71 72 74 73 72 85 93 97 95 91 90 83 81 84 86 83 86
40 36 31 23 22 13 12 25 39 45 52 59 62 62 61 67 62 60 61 65 65 67 65 66 67 72 69 69 70 71 75 74 73 77 80 84 94 97 97 94 79 78 82 82 86 85 83
42 38 34 28 23 19 11 14 29 39 46 62 63 64 66 66 60 63 61 66 66 64 67 71 71 71 74 74 68 67 67 76 77 81 81 90 89 94 95 94 90 80 75 77 81 89 80
44 40 37 32 29 22 21 13 18 29 38 51 66 67 68 69 68 67 64 65 64 62 74 76 79 81 79 78 77 69 67 64 72 78 86 91 89 87 88 90 77 69 70 75 86 78 76
44 40 39 35 34 30 26 22 18 17 29 44 59 72 71 72 70 68 71 71 67 65 76 82 83 87 88 87 79 75 79 77 76 70 77 81 81 80 82 84 81 66 68 73 71 71 74
45 42 41 38 35 33 29 26 23 19 17 26 50 67 73 76 74 72 68 68 67 76 82 81 86 87 88 87 85 84 83 82 78 85 72 78 71 70 71 71 63 65 68 67 67 70 74

GFSGBSN_prec_cthk_027.txt.gz
RH
36 37 33 34 38 39 40 43 42 40 39 43 45 43 43 36 35 34 32 31 37 53 55 68 74 62 50 43 42 52 55 55 53 45 35 35 40 39 39 34 34 36 33 33 31 27 30
39 39 35 40 40 42 38 38 41 43 42 52 54 50 44 40 37 37 30 28 29 48 57 70 71 71 51 51 42 49 55 59 63 63 50 42 38 37 37 36 38 34 35 35 33 31 31
32 37 40 42 41 41 38 40 41 46 49 51 56 57 54 50 48 40 31 25 25 37 60 79 73 71 60 41 54 51 54 57 59 61 57 56 52 45 44 42 42 41 43 39 34 30 31
37 42 42 42 43 43 43 42 42 49 54 59 66 72 71 65 58 46 34 33 25 35 64 79 78 74 62 43 50 51 60 59 64 65 67 69 62 57 50 48 45 44 46 48 32 31 29
42 40 40 43 49 47 45 49 50 57 65 73 78 78 76 71 63 50 48 36 31 30 68 86 81 72 62 51 45 52 54 61 61 63 77 80 76 71 62 57 53 49 52 48 42 35 36
38 42 44 48 46 44 48 47 55 64 70 71 75 74 74 69 68 65 67 54 35 28 67 87 80 78 61 54 44 50 56 61 69 71 80 87 92 81 76 69 67 57 55 50 47 42 44
40 43 43 49 44 41 40 51 56 63 68 75 74 75 80 82 85 75 61 56 39 36 87 74 79 69 51 53 45 51 58 60 70 74 79 93 93 94 87 76 66 62 56 52 48 45 42
41 46 44 45 43 42 47 53 54 65 64 70 73 80 85 87 88 75 63 56 48 57 98 91 98 92 69 56 49 52 64 65 66 73 72 76 81 88 82 74 67 63 58 54 49 47 44
49 47 43 44 41 46 50 51 59 59 56 66 72 84 89 94 91 85 64 55 51 72 99 90 93 88 80 63 51 52 58 64 67 73 71 71 67 66 70 68 62 61 60 57 53 46 41
47 44 46 43 42 45 49 48 58 57 55 60 67 77 83 90 93 84 60 50 58 95 93 91 92 83 79 72 57 56 61 62 66 72 70 68 67 68 67 67 65 65 57 52 49 47 48
44 39 46 42 42 45 47 48 60 67 56 57 67 72 80 87 88 82 64 53 69 96 98 93 89 85 76 69 55 62 65 59 63 65 69 69 68 70 67 68 65 63 55 49 47 48 47
43 39 42 40 41 46 46 50 60 64 54 68 75 77 83 95 81 70 65 83 90 98 97 99 92 86 76 70 61 62 66 61 60 66 72 68 64 68 68 67 63 57 54 48 46 49 57
44 38 38 38 42 43 48 57 62 62 56 69 75 89 91 88 80 55 76 90 92 97 99 99 88 83 77 73 67 65 64 62 65 70 73 69 68 62 61 63 59 56 54 63 60 61 55
40 41 36 38 40 45 50 56 62 66 69 75 84 91 75 71 57 55 78 87 97 96 96 93 87 88 81 69 77 67 62 62 60 58 68 71 72 66 61 57 56 55 50 58 65 66 57
41 36 35 38 42 46 39 55 77 87 92 85 78 84 84 71 58 68 86 95 98 98 94 89 90 87 82 69 71 65 62 56 57 52 55 65 61 55 54 50 50 56 59 55 63 58 65
39 39 35 36 41 40 46 70 81 78 82 72 71 78 72 68 78 95 96 98 99 95 86 82 85 78 75 73 67 58 58 52 51 50 51 56 61 55 55 53 52 54 53 66 69 68 65
40 35 33 30 35 39 52 68 78 68 66 66 61 64 77 77 82 96 97 98 97 85 82 80 77 75 71 78 61 57 55 51 50 50 53 54 53 62 61 59 59 61 62 59 59 65 71
38 33 32 26 36 40 50 63 63 52 62 56 55 64 75 90 89 96 97 98 97 92 79 70 68 70 70 72 63 51 54 51 50 51 52 54 60 70 64 58 56 57 58 62 69 67 73
39 30 26 25 34 37 45 56 49 50 58 55 67 77 80 82 90 97 98 98 96 89 82 71 69 65 63 60 56 53 57 55 52 57 54 60 68 69 67 61 58 61 64 66 70 76 78
42 32 25 19 26 33 41 46 45 55 58 60 61 71 77 89 95 96 95 94 92 84 75 67 61 63 65 64 61 62 62 59 59 63 61 60 65 66 67 65 65 71 71 73 80 87 78
45 35 27 21 21 31 38 41 43 52 54 54 60 69 78 84 85 90 91 89 82 79 77 74 69 63 65 68 63 62 64 63 62 62 60 63 69 67 64 64 69 75 78 80 86 86 90
45 37 29 24 17 23 32 33 39 49 51 48 61 69 69 74 72 76 79 79 73 72 72 72 72 68 67 66 62 62 61 61 61 62 65 67 72 74 78 77 82 85 81 85 87 85 85
48 40 31 27 18 14 21 30 33 48 54 50 56 63 68 66 68 68 71 70 68 66 62 62 65 71 69 66 63 63 60 58 60 64 69 71 78 86 88 83 86 92 85 87 87 88 89
49 44 34 29 25 14 16 23 31 39 52 54 52 55 61 61 60 61 61 63 64 63 61 57 57 59 69 64 62 62 64 68 69 69 70 77 86 94 94 91 88 83 80 82 84 84 86
49 46 39 32 29 23 14 19 21 30 41 53 55 53 54 60 61 57 58 60 62 63 61 60 58 62 61 68 72 75 75 76 73 72 72 75 90 96 97 96 81 78 80 81 82 81 78
49 48 42 37 32 28 25 18 18 19 29 48 58 58 58 56 57 61 59 61 63 62 60 63 62 64 65 67 69 68 69 73 78 77 79 83 90 97 95 97 92 78 72 72 77 81 71
52 48 44 41 37 34 30 26 23 19 19 28 56 62 62 61 56 58 63 65 65 62 66 68 68 68 68 71 72 66 65 64 73 79 86 91 95 91 91 93 81 71 70 73 76 71 73
59 50 45 43 42 40 40 37 29 25 20 18 27 55 64 65 59 62 63 68 66 65 66 71 74 78 80 79 78 71 68 70 71 71 80 85 91 89 85 89 83 66 70 75 69 68 70
65 54 49 43 46 45 41 40 43 40 27 23 19 22 53 64 65 67 65 68 70 71 68 75 82 79 80 83 79 78 76 77 75 79 74 81 77 82 73 73 65 65 68 69 67 66 68

GFSGBSN_prec_cthk_030.txt.gz
RH
31 31 38 43 40 41 42 41 38 41 43 49 51 56 59 53 48 49 42 36 27 27 39 50 67 77 78 57 41 51 48 41 41 39 35 34 39 39 38 34 32 35 32 30 27 26 27
35 40 41 40 43 44 45 43 41 42 41 48 60 64 73 67 58 54 54 43 34 24 32 54 69 95 66 67 45 54 55 54 52 45 39 37 39 39 38 35 35 34 31 32 30 30 30
43 38 38 40 45 49 44 39 42 50 50 58 66 73 75 75 74 74 63 51 37 28 26 56 74 94 65 74 57 52 55 63 69 65 50 40 44 45 38 39 38 38 39 38 32 28 30
42 37 39 46 47 44 41 37 39 49 54 63 71 77 74 75 72 73 66 48 37 31 22 53 71 80 68 75 70 62 55 63 69 74 71 53 54 50 42 45 44 43 43 44 33 33 31
42 40 43 47 47 41 38 40 48 52 57 62 71 74 73 80 74 68 65 55 47 33 27 50 78 95 91 67 69 64 65 62 65 66 69 68 69 64 51 50 51 49 51 46 39 33 32
43 44 47 47 45 38 39 51 53 59 66 63 64 69 73 79 82 82 75 62 56 39 27 43 85 94 72 64 63 62 71 67 67 72 85 87 82 76 66 60 60 52 50 45 44 40 41
45 47 46 47 42 38 45 51 48 60 63 62 61 69 80 87 90 92 84 65 57 43 35 73 96 93 66 68 58 64 68 70 69 75 80 90 94 82 71 63 60 60 56 53 46 42 40
46 45 46 44 41 39 45 50 55 68 68 61 61 64 81 88 93 92 75 66 64 53 45 76 88 92 76 68 58 60 70 70 80 79 86 85 91 93 93 89 78 70 64 56 49 47 45
47 46 44 42 39 44 45 50 61 71 72 60 62 69 77 85 92 96 71 63 61 51 68 80 98 97 74 66 54 58 70 74 73 80 75 88 87 89 87 84 82 72 64 60 55 50 46
48 45 40 41 37 43 44 51 67 75 73 58 67 74 79 81 91 89 66 59 57 54 87 95 90 82 90 66 57 59 70 75 74 74 75 75 75 84 84 84 78 70 60 56 54 52 53
47 43 41 38 40 42 47 55 66 73 70 58 67 75 86 89 93 93 57 69 68 85 97 91 98 96 92 71 55 67 71 73 74 73 68 72 67 66 69 70 64 62 57 55 52 52 50
47 45 36 38 41 48 51 51 59 64 72 71 75 93 92 90 79 67 58 84 78 97 97 98 97 94 90 76 64 70 70 66 70 71 70 69 65 66 65 64 64 62 60 59 56 54 57
46 41 35 39 41 46 46 60 76 78 85 88 91 85 90 82 62 66 84 71 93 96 97 99 88 83 78 73 68 68 68 64 71 75 75 72 68 65 67 67 65 64 62 64 58 62 52
46 39 35 34 38 43 56 59 63 69 75 74 75 62 60 53 69 80 81 80 95 94 95 96 80 78 78 74 73 73 67 68 64 64 72 76 77 69 66 66 68 62 56 55 51 63 57
46 37 38 33 42 46 48 50 52 59 63 63 60 60 64 59 76 85 96 94 98 95 89 78 82 87 80 77 74 73 69 65 61 57 63 71 68 65 63 59 57 59 57 50 57 56 64
48 38 32 33 43 38 38 49 48 54 49 57 62 62 70 75 85 89 94 97 97 90 86 81 85 79 85 74 77 74 66 60 60 59 57 57 69 59 57 53 51 50 51 64 66 68 61
50 38 29 25 34 32 33 46 48 48 49 52 57 66 72 81 88 91 93 95 98 91 86 80 83 76 75 69 71 67 64 54 54 53 52 50 51 60 54 55 56 58 60 59 60 62 66
51 35 29 23 33 32 33 37 50 49 49 56 61 66 70 75 90 96 98 95 89 86 76 74 74 73 69 71 67 55 55 55 50 47 50 49 51 61 61 56 55 58 61 61 67 58 73
51 35 28 19 29 32 36 34 44 46 46 52 58 57 62 68 84 90 96 92 85 78 69 64 64 62 67 70 63 52 52 50 50 51 49 48 53 63 63 59 59 59 57 61 65 71 83
52 39 28 19 19 27 29 32 42 44 45 49 55 61 65 65 71 80 85 83 76 68 61 61 63 60 66 65 54 54 54 56 53 55 51 53 62 61 64 60 59 64 66 71 79 88 80
55 46 30 25 11 20 24 29 41 42 42 46 56 65 69 70 70 76 79 79 76 75 66 59 64 64 63 62 60 60 56 58 57 60 59 59 66 67 64 61 64 71 77 81 84 78 84
57 51 35 30 13 15 20 27 34 42 41 43 53 60 64 65 65 67 67 67 67 69 69 70 67 68 65 66 61 58 59 61 61 62 61 64 70 69 66 67 76 84 82 82 81 82 81
60 58 40 32 25 12 16 20 29 39 43 46 51 56 60 56 60 62 60 59 60 58 61 67 68 69 69 67 61 57 55 56 59 62 65 66 72 74 78 80 87 89 85 84 85 85 85
66 64 48 35 32 21 12 15 20 30 43 47 46 50 56 58 56 55 56 56 56 57 57 56 59 65 68 62 63 63 63 61 62 64 66 73 75 85 89 90 90 81 77 80 82 80 77
80 67 53 38 37 31 25 16 17 17 32 47 50 50 49 55 58 54 57 56 56 56 57 58 55 55 61 66 69 70 70 70 71 69 70 71 82 91 96 94 82 77 80 80 80 73 70
83 71 57 44 40 37 32 29 24 12 13 32 53 54 55 55 52 54 57 56 58 60 58 59 59 62 62 68 74 73 73 73 81 80 72 77 82 94 97 97 93 77 73 72 71 79 67
86 73 63 50 45 42 38 35 33 30 15 12 33 52 59 60 56 59 57 55 60 60 60 63 62 65 66 70 72 73 71 69 82 78 78 84 89 93 95 94 82 72 73 74 79 67 67
83 75 69 57 47 47 46 42 42 39 33 22 19 27 42 52 54 58 60 60 62 62 62 63 68 70 75 75 75 73 70 70 74 70 76 83 91 94 93 88 85 69 71 76 71 68 67
86 77 71 63 54 47 51 51 53 54 50 38 30 25 24 34 38 54 58 61 64 69 68 67 68 69 74 80 80 78 75 74 74 74 70 79 75 85 82 74 67 68 67 69 71 68 67

GFSGBSN_prec_cthk_033.txt.gz
RH
41 49 47 46 42 47 50 46 41 35 39 45 50 57 62 67 71 75 73 64 51 46 31 30 54 64 92 72 66 64 48 37 40 40 41 42 39 38 38 35 34 36 35 31 29 27 27
49 47 47 45 48 46 47 39 39 35 40 49 52 65 73 75 78 84 78 71 56 49 38 28 55 64 78 70 77 63 64 44 46 48 44 47 42 37 36 35 35 33 32 31 31 28 26
54 49 49 47 49 49 44 38 40 46 54 54 61 67 67 70 72 79 80 76 68 50 41 31 48 63 90 74 68 69 66 66 54 53 45 43 44 42 39 37 37 34 36 33 29 28 29
49 49 52 51 48 48 41 48 47 51 58 61 74 62 64 73 77 81 74 69 66 45 42 33 48 69 78 95 69 73 68 74 71 67 53 46 51 49 43 41 41 42 41 44 33 30 29
51 52 54 48 49 43 47 50 51 57 60 69 65 64 66 72 77 83 79 70 63 51 45 37 51 74 82 95 81 70 70 74 90 90 85 56 60 55 49 50 50 48 51 45 36 32 33
55 53 48 45 48 40 49 54 56 64 69 78 68 57 62 79 84 91 84 81 65 55 43 38 53 82 94 78 80 75 76 69 86 94 97 79 77 71 58 55 51 52 46 42 40 35 37
55 55 50 43 43 42 52 56 61 60 78 86 73 58 67 75 87 98 96 77 65 61 47 35 61 66 68 89 73 82 82 68 82 88 88 87 85 72 61 54 49 48 50 47 40 37 36
57 56 46 40 45 46 52 60 62 63 77 86 68 62 71 77 81 93 91 67 66 66 47 42 70 76 80 91 80 81 82 83 81 92 89 91 87 82 74 69 65 62 60 58 47 44 41
56 54 47 41 46 49 51 58 60 62 75 78 63 62 68 73 83 87 89 63 63 61 48 66 73 95 96 86 75 70 77 84 81 89 88 96 95 94 89 83 76 68 64 60 55 51 45
57 52 46 39 49 48 54 55 62 72 65 75 71 66 71 91 94 96 80 57 61 52 74 75 93 97 92 77 72 69 81 81 89 90 92 84 94 90 95 96 87 76 69 62 57 54 56
55 53 45 40 44 44 44 55 60 70 81 92 95 90 93 95 93 90 60 62 53 73 89 75 90 95 90 72 64 65 81 82 82 89 84 88 89 95 95 89 84 82 72 66 59 57 52
56 53 43 40 41 42 44 46 55 66 70 70 76 84 86 74 73 61 64 53 67 96 93 98 99 97 82 70 63 69 83 84 84 79 77 82 80 85 84 84 80 74 71 64 61 56 58
57 53 39 34 38 34 43 46 55 61 59 52 48 51 54 54 69 63 58 62 95 88 97 99 95 86 87 74 68 76 82 79 89 86 81 74 72 67 65 67 65 63 63 65 55 63 52
55 51 37 28 35 31 42 51 54 60 56 53 54 59 56 61 61 63 87 96 91 88 85 89 87 84 93 78 73 78 73 75 77 76 84 82 80 69 66 66 68 66 65 64 45 58 55
58 53 34 26 31 32 39 45 48 56 57 64 58 63 66 68 71 80 88 93 98 89 97 93 89 92 90 80 74 78 69 67 70 64 66 71 68 67 65 64 62 68 70 60 61 56 59
55 53 36 26 30 32 34 42 44 45 51 57 68 62 61 60 66 79 76 86 94 93 86 79 82 78 80 80 74 76 65 61 61 68 61 61 73 65 66 64 64 63 58 61 59 60 55
52 53 39 26 19 24 28 36 41 41 44 46 55 68 71 63 66 75 74 77 86 78 67 62 67 66 65 67 70 66 62 55 56 58 58 58 63 70 63 64 63 60 58 55 57 58 60
58 52 41 29 17 22 27 35 40 42 43 48 52 62 77 72 74 75 75 70 71 70 64 64 62 67 69 66 66 62 60 55 52 56 59 56 61 68 61 57 54 54 58 58 62 58 67
65 55 40 28 17 18 24 31 40 43 46 50 53 56 65 72 78 72 71 69 69 69 68 66 65 63 64 61 64 59 52 48 51 53 56 54 57 64 58 58 58 60 59 58 57 61 71
63 58 47 28 18 17 21 26 37 40 45 51 52 54 57 66 73 74 74 70 64 61 58 58 60 59 60 63 58 54 51 50 49 49 51 51 55 56 61 58 59 63 60 60 66 81 78
62 55 54 37 19 16 18 24 31 38 40 45 57 62 64 68 65 69 70 67 64 61 58 59 61 61 64 69 62 54 51 51 54 56 55 53 62 66 64 61 61 60 62 68 80 78 84
58 63 65 47 28 16 15 19 28 36 37 40 52 61 63 63 61 60 60 62 64 65 63 60 61 66 66 63 59 57 54 56 56 58 58 58 71 71 67 60 63 71 70 78 81 81 80
52 62 73 62 38 20 14 14 18 30 37 40 47 53 58 57 60 57 56 55 59 59 63 66 67 70 70 68 62 59 57 58 58 60 63 65 72 71 69 69 77 83 79 79 82 82 81
53 61 76 81 48 30 20 15 14 18 35 42 42 47 54 56 57 58 58 56 56 55 57 59 65 67 68 67 66 64 61 60 61 63 64 70 73 75 75 81 87 79 78 78 80 79 79
60 63 79 89 60 38 33 23 19 17 14 39 47 48 44 47 53 56 58 57 58 57 57 58 57 59 63 64 71 72 71 68 66 66 68 66 73 78 87 88 81 79 83 83 85 78 71
67 68 80 93 71 48 41 35 27 29 18 17 34 46 50 50 47 50 54 53 54 57 58 59 57 56 57 64 73 76 73 66 75 75 71 72 75 84 93 96 93 81 80 77 77 78 72
77 80 86 90 79 56 46 41 38 36 32 23 26 31 38 49 49 55 55 55 52 53 57 59 62 62 64 68 69 71 72 69 76 76 82 81 79 83 91 96 85 78 78 81 83 74 72
86 92 87 87 86 66 50 48 45 43 40 37 33 28 29 35 31 46 52 58 59 57 60 60 65 66 68 70 72 70 70 73 76 73 77 80 80 87 90 94 88 74 81 80 73 73 70
90 93 89 88 85 80 62 53 57 54 52 48 46 43 38 34 25 28 43 47 55 64 69 66 64 69 69 72 73 75 75 73 76 75 72 75 70 82 85 83 71 73 74 69 70 72 69

GFSGBSN_prec_cthk_036.txt.gz
RH
49 49 50 53 58 53 53 50 45 45 50 52 57 52 59 67 71 72 79 82 86 80 64 54 33 44 66 75 91 74 70 51 38 42 44 48 40 44 42 41 40 40 39 36 34 34 34
51 48 52 60 58 52 51 49 50 52 56 56 60 62 74 60 64 73 80 86 88 86 73 58 40 47 70 72 84 82 79 64 40 48 45 50 48 41 41 38 38 38 38 35 34 33 32
49 52 56 61 55 52 49 51 58 59 58 64 65 73 71 61 61 76 87 82 83 87 75 58 47 47 69 72 94 92 76 71 50 48 47 50 51 44 41 39 38 38 35 33 31 32 31
54 56 58 57 48 51 48 54 60 61 59 65 71 76 66 70 71 78 79 77 75 72 69 56 42 55 68 63 81 80 76 79 68 59 52 50 51 49 45 42 42 41 39 42 32 29 28
57 59 59 54 44 49 50 50 56 65 65 68 82 78 70 63 73 84 90 86 78 75 67 55 45 65 70 55 84 80 73 84 89 87 75 61 54 53 52 48 49 46 49 44 37 32 31
59 60 59 54 47 50 49 51 58 62 64 71 85 84 69 67 76 82 89 87 78 64 61 52 45 68 60 54 83 79 80 95 86 89 84 78 62 59 57 53 54 50 48 42 40 32 33
58 57 59 53 49 49 46 50 50 50 56 70 83 82 65 68 76 84 85 83 73 72 63 46 45 65 63 65 93 93 82 96 98 96 91 79 70 61 56 55 51 48 48 45 39 36 35
60 53 57 48 51 43 42 44 49 61 70 72 74 69 66 67 72 83 87 79 63 75 57 45 55 80 79 86 96 88 84 90 94 98 96 95 87 72 69 59 54 54 54 50 44 41 39
58 55 49 49 44 41 43 45 50 56 72 84 96 99 92 74 81 90 93 81 61 64 54 55 80 83 88 88 94 86 86 87 92 94 96 95 92 85 78 72 67 60 58 54 51 48 45
58 55 45 43 43 42 41 44 51 57 59 51 61 83 89 94 94 92 76 56 62 56 56 71 76 75 90 89 93 86 89 86 85 96 95 96 91 93 93 84 72 72 60 59 56 54 56
52 56 40 38 41 39 39 45 51 57 51 43 58 56 62 66 74 62 56 57 53 62 91 84 79 78 84 89 88 94 93 88 88 89 92 94 96 95 97 93 90 82 72 69 63 60 54
52 55 38 33 34 33 39 43 43 50 56 49 52 53 55 55 57 57 52 60 80 82 83 96 98 89 89 82 73 81 89 89 92 89 88 92 95 95 94 94 92 86 82 76 71 65 63
55 51 39 33 33 34 37 40 46 45 51 49 51 60 62 49 52 57 81 93 87 79 90 94 98 92 83 77 70 80 91 87 95 96 97 93 91 85 87 89 86 83 84 83 68 67 61
57 51 43 31 28 31 35 39 43 48 47 41 50 58 61 51 66 85 90 83 76 84 90 98 86 86 82 73 73 73 88 91 83 85 89 90 93 81 79 81 81 79 72 69 54 54 55
65 52 44 32 19 26 27 36 39 41 48 52 53 60 67 65 67 73 69 79 94 95 88 92 85 81 79 70 71 80 81 85 82 78 75 76 75 71 69 71 67 69 71 64 69 65 64
60 57 41 39 23 22 27 35 39 43 47 55 55 58 68 67 68 77 73 74 82 78 79 71 76 82 86 71 71 74 74 70 73 71 66 68 78 70 68 64 64 61 65 71 69 56 54
55 61 38 37 29 19 26 34 38 42 44 55 60 57 67 65 57 64 72 74 79 77 75 71 78 75 74 72 67 73 64 58 57 68 61 59 61 70 65 66 69 69 69 65 60 58 57
54 65 55 29 33 24 17 28 36 40 42 46 59 69 67 62 57 65 72 69 64 65 62 59 59 57 61 66 65 61 61 55 55 56 63 58 63 73 67 64 63 63 63 59 60 59 63
57 59 64 39 29 31 14 21 32 36 39 41 49 58 66 62 65 64 65 65 63 61 59 54 59 59 60 61 62 57 56 52 50 54 59 60 61 68 64 61 60 59 57 57 57 58 66
59 59 64 56 39 36 16 16 25 35 36 44 47 58 60 65 67 69 68 67 64 62 62 61 60 60 58 59 59 59 51 52 50 52 55 55 57 56 60 56 59 63 61 61 61 69 67
63 61 68 61 57 44 25 13 18 31 35 38 51 59 61 64 63 66 67 65 64 65 62 59 60 58 57 64 62 55 51 51 51 52 55 56 60 59 59 60 63 63 60 62 65 68 79
58 59 65 69 64 60 37 15 14 23 35 36 46 56 57 59 58 57 58 60 64 64 60 59 60 64 67 67 61 57 51 50 53 56 58 58 66 68 69 63 64 65 62 68 75 80 80
62 59 52 61 62 74 51 24 13 16 31 38 41 49 54 53 54 54 56 55 57 58 61 60 61 69 69 68 62 55 52 54 57 60 61 63 69 73 71 67 67 71 72 77 80 81 78
57 60 57 60 62 76 63 42 22 14 19 35 42 43 50 49 52 54 56 55 56 56 56 60 63 64 68 66 64 62 62 61 61 62 62 67 73 75 72 69 78 69 77 81 82 81 80
64 62 59 62 68 79 72 55 34 28 17 22 36 45 48 45 47 48 52 56 55 55 56 59 61 62 67 65 69 73 72 67 65 65 67 66 74 76 75 75 73 72 83 87 86 81 75
65 67 65 72 81 83 80 60 42 36 30 24 26 31 41 51 46 48 50 52 53 55 56 58 59 60 63 67 72 75 76 70 77 75 69 72 70 77 81 84 89 81 84 83 82 83 73
66 73 76 84 94 92 84 64 52 41 37 32 29 26 34 35 36 50 55 56 53 52 53 56 60 60 59 65 68 70 73 70 72 72 76 78 80 78 79 81 83 76 81 86 88 80 73
75 78 79 81 91 95 94 75 56 46 42 42 41 39 36 33 27 24 40 53 59 59 58 57 61 64 67 69 71 70 68 68 75 71 70 73 79 81 77 84 86 75 83 89 83 78 75
75 80 83 83 91 94 97 92 74 55 49 47 50 52 51 49 37 32 27 31 48 58 62 64 60 63 64 66 69 72 73 73 72 78 74 78 69 74 71 74 73 76 79 84 81 77 74

GFSGBSN_prec_cthk_039.txt.gz
RH
54 56 57 60 63 53 55 55 51 48 52 56 62 66 72 79 77 68 63 62 68 76 81 86 76 51 41 61 71 67 89 85 55 52 52 55 51 49 55 55 60 52 50 46 45 45 43
56 59 59 58 54 49 58 51 46 48 54 62 70 75 78 80 70 62 61 74 77 84 88 89 80 57 44 61 64 83 87 84 55 56 54 58 50 47 49 50 53 55 47 44 41 41 40
59 58 55 56 50 53 53 45 48 50 57 66 72 79 89 83 68 67 69 74 73 79 88 93 82 66 45 54 58 73 80 78 61 60 54 60 52 50 44 47 45 51 48 42 37 36 35
52 59 53 54 54 56 45 43 47 54 58 63 74 79 89 81 64 63 77 85 86 78 78 81 79 64 46 58 68 84 89 81 80 68 60 62 60 50 44 45 45 47 48 43 33 32 33
56 52 49 49 55 49 43 45 45 53 55 66 73 80 88 77 64 73 81 85 84 81 79 77 78 62 53 63 68 86 88 97 88 76 71 70 68 59 52 50 53 49 51 46 37 33 31
58 47 48 46 52 46 39 42 49 56 66 78 84 82 76 68 67 72 82 80 81 79 72 76 72 64 59 56 80 94 83 96 89 81 90 84 78 63 59 54 56 55 50 45 36 31 32
56 46 44 42 51 39 38 40 47 56 67 72 79 98 87 66 67 79 84 85 81 68 72 65 57 67 63 59 66 88 81 97 97 93 94 90 81 63 57 52 46 45 42 41 37 34 35
59 46 43 39 47 39 36 38 49 55 59 62 65 83 89 90 79 82 89 89 76 76 71 57 52 82 69 62 70 82 83 97 97 97 94 92 82 65 56 56 51 48 48 47 42 37 36
61 48 39 40 43 35 35 42 45 50 48 54 54 62 85 85 91 94 97 82 64 68 60 57 70 81 78 75 82 86 90 98 95 97 95 89 83 68 64 66 59 55 52 49 46 42 40
58 45 40 38 42 33 35 42 43 47 45 49 55 48 45 56 63 66 67 60 60 63 69 98 86 88 69 69 90 95 98 96 98 98 97 95 96 80 73 71 64 61 50 51 48 50 51
54 49 41 37 41 35 35 40 40 40 40 43 42 51 67 69 49 51 51 51 68 71 92 98 90 83 79 92 93 94 94 93 96 97 95 98 96 97 91 82 73 69 61 58 58 58 54
48 51 38 33 37 39 35 40 38 38 34 41 46 57 63 63 66 62 68 80 82 68 86 93 89 91 83 93 88 92 89 90 94 95 93 96 94 95 98 97 86 77 70 68 67 64 61
45 49 37 30 34 40 37 40 39 38 39 42 51 52 64 71 60 58 74 79 73 76 83 85 88 87 82 95 94 97 92 92 94 96 95 98 98 91 96 97 96 89 83 82 69 70 62
47 50 43 31 33 32 38 38 42 42 44 43 55 56 63 65 66 62 63 64 83 98 94 88 86 83 86 88 92 90 90 91 89 90 96 95 96 91 90 89 90 91 87 83 71 57 55
44 49 50 32 33 28 35 35 40 45 53 57 55 50 62 58 59 59 62 69 83 88 86 84 77 82 79 73 83 88 96 88 87 84 87 89 92 85 82 82 80 84 86 75 75 67 61
41 52 51 44 33 27 29 27 38 40 46 58 53 49 51 58 57 59 64 72 78 79 74 71 76 69 70 71 67 69 78 82 82 77 75 74 86 79 76 73 74 71 71 75 72 63 55
48 49 51 52 36 30 29 20 27 37 35 49 57 45 50 51 54 51 64 75 77 71 66 64 74 74 65 63 67 67 67 71 74 75 69 67 68 77 70 69 68 69 68 66 65 64 54
52 47 56 54 50 35 35 18 20 30 33 40 55 52 48 46 57 60 63 64 68 70 65 58 60 62 65 63 62 65 63 60 61 65 65 60 65 74 70 67 63 65 68 63 64 62 60
49 48 60 59 61 49 36 30 15 25 33 38 49 56 53 46 60 64 63 63 59 58 55 53 54 52 54 61 62 58 58 53 54 54 62 59 60 70 65 63 64 66 66 63 58 56 60
50 50 55 57 60 57 43 49 13 17 31 35 47 55 56 60 59 63 67 65 64 63 58 58 60 60 57 59 57 58 55 57 52 51 53 57 60 57 57 55 59 65 61 56 57 64 58
52 56 58 59 54 45 52 53 32 12 27 33 43 53 57 60 61 63 65 64 63 62 60 58 59 60 59 62 63 62 54 54 53 52 53 56 63 61 56 53 59 61 60 61 61 58 60
58 53 52 57 57 48 46 53 48 18 20 35 40 50 52 58 58 57 58 65 66 63 63 62 61 62 61 67 61 63 50 50 50 53 53 56 68 63 61 60 63 65 62 61 60 62 67
51 51 49 52 56 51 49 59 53 34 16 30 41 43 50 53 54 55 55 57 58 59 62 61 64 67 71 71 66 60 50 52 53 57 59 58 64 64 67 66 67 66 59 60 64 71 75
53 57 56 55 58 57 57 61 61 53 24 22 32 43 45 47 50 53 56 57 57 58 57 57 61 66 70 66 63 60 59 58 59 60 60 63 67 71 69 67 73 56 66 69 70 78 79
60 61 62 61 64 68 69 66 67 65 40 25 24 32 44 46 45 46 50 54 56 55 57 59 59 59 66 67 71 73 70 66 67 64 63 63 70 75 73 70 63 63 73 81 83 83 82
64 60 63 69 71 76 79 78 68 64 55 33 25 26 30 36 45 49 48 50 52 53 55 57 61 63 61 65 69 75 78 73 76 75 70 68 68 73 78 78 77 69 77 84 86 90 84
62 64 65 68 71 75 80 85 82 67 60 44 36 30 30 33 26 34 49 53 53 52 53 54 56 60 61 62 66 67 70 69 76 72 76 78 77 75 76 75 66 67 80 90 96 88 81
71 63 66 68 74 78 84 86 91 82 67 57 43 40 40 39 32 31 31 38 52 57 57 54 59 59 62 64 63 65 63 64 69 71 73 72 77 76 75 76 73 63 81 92 88 85 83
75 71 70 73 78 88 86 89 96 90 77 64 54 48 48 51 46 45 42 37 35 56 61 62 58 56 59 63 64 65 67 68 68 74 73 79 69 71 68 69 63 66 77 81 84 84 83

GFSGBSN_prec_cthk_042.txt.gz
RH
42 48 45 49 49 44 45 46 42 41 49 55 63 73 81 89 83 79 69 67 67 66 68 78 87 84 65 43 53 59 68 67 75 62 58 54 55 57 49 52 66 61 58 52 49 43 39
43 48 46 46 47 43 42 44 43 44 50 58 66 74 78 87 88 79 72 68 71 70 69 72 82 88 76 46 49 67 77 75 76 63 62 59 55 63 58 56 55 61 61 56 54 51 46
44 45 46 41 46 46 44 43 43 45 56 64 77 84 80 84 93 74 64 72 79 87 77 81 91 91 77 46 51 71 65 79 90 65 59 61 58 67 57 59 56 61 61 59 54 49 48
45 46 43 41 48 48 41 44 47 51 61 74 81 93 85 78 84 68 66 71 83 79 78 77 88 89 69 43 57 69 77 80 90 65 63 68 64 68 61 56 54 57 57 61 49 46 45
45 50 41 39 46 49 44 42 46 50 60 54 63 72 96 77 72 65 68 75 74 77 78 76 83 83 71 40 60 65 82 79 76 64 73 79 72 69 61 56 56 53 46 47 50 44 38
46 51 43 38 42 51 40 41 42 45 47 62 60 59 89 78 57 66 73 76 77 75 74 76 77 83 66 53 61 61 64 76 82 70 90 93 87 73 64 58 45 45 44 46 42 41 38
43 49 44 38 41 46 41 42 38 48 56 63 59 60 76 94 80 70 78 82 84 76 73 70 80 83 63 66 59 67 83 88 89 82 94 96 95 77 60 53 49 47 43 38 34 41 34
44 49 43 38 41 43 42 36 43 46 50 60 52 43 60 86 93 88 87 84 71 74 76 76 79 73 73 76 75 82 90 98 91 92 94 96 86 78 72 64 55 45 43 41 43 40 40
45 46 42 39 42 42 40 37 41 40 44 55 56 39 48 55 58 78 83 67 68 69 77 85 85 75 79 82 90 81 91 98 95 95 94 90 85 80 74 65 57 52 45 46 41 39 38
46 46 39 36 40 41 41 38 39 38 39 55 55 41 34 37 43 53 56 56 55 69 96 97 90 87 81 86 89 84 96 96 97 98 94 92 89 80 68 64 58 57 51 49 44 44 38
50 42 42 40 32 39 44 40 43 42 39 50 52 46 39 47 55 64 77 75 80 88 92 98 96 75 66 72 80 80 94 98 96 96 97 96 90 85 73 60 61 56 49 47 47 48 46
46 42 43 40 28 35 41 39 46 49 41 47 52 51 49 49 52 52 68 78 78 86 96 97 77 77 77 82 85 93 97 95 97 96 96 96 98 96 85 72 66 61 55 54 54 55 60
48 40 42 41 29 31 35 33 39 49 47 44 44 50 51 52 51 49 59 66 73 80 87 85 77 79 93 88 89 93 93 93 96 99 98 98 98 98 93 89 78 67 65 75 74 73 57
44 40 43 43 38 26 27 29 35 42 46 41 42 46 51 55 57 67 64 60 65 79 77 80 77 80 90 92 96 93 86 92 87 86 92 97 97 97 96 96 94 87 80 69 64 53 45
40 43 44 47 44 33 27 30 26 36 40 38 40 45 51 54 54 54 62 66 71 74 76 75 71 78 83 85 92 93 88 82 81 81 83 88 96 92 92 90 94 96 93 74 67 59 56
41 45 44 50 54 42 33 34 19 26 36 38 39 41 44 47 48 54 60 70 72 69 65 65 65 64 70 80 81 80 86 81 79 79 75 80 93 86 82 83 82 82 79 85 82 78 60
38 46 43 51 56 60 46 37 20 20 30 39 40 44 42 43 45 52 64 68 67 66 63 62 61 56 56 61 72 72 72 77 77 73 72 71 72 84 79 78 78 77 75 70 68 60 47
43 47 46 49 54 53 55 43 42 13 27 36 43 47 44 42 50 54 60 65 63 62 61 59 59 60 53 54 58 58 59 64 72 75 71 67 69 79 75 70 70 67 64 58 56 62 57
49 49 51 53 51 50 45 46 50 19 22 33 44 50 45 44 53 58 59 55 60 59 53 50 51 53 55 55 55 57 56 60 62 64 66 62 64 74 74 67 66 64 60 58 55 56 61
44 48 55 53 50 52 46 42 47 44 14 32 42 51 51 53 57 58 61 58 54 53 51 52 54 52 52 56 56 56 57 57 54 53 57 58 57 54 51 54 56 64 61 59 59 63 50
45 50 48 46 49 46 43 43 44 49 22 29 39 48 52 55 54 58 60 59 56 58 59 57 57 58 55 56 56 55 54 55 53 52 52 56 63 61 54 53 56 58 57 56 57 49 53
48 47 46 50 48 48 49 49 46 48 45 23 40 47 48 52 54 52 55 62 62 61 61 59 58 58 57 58 51 59 54 49 50 52 51 54 68 64 62 56 54 59 54 54 54 52 51
51 53 51 49 49 56 59 55 49 48 52 39 31 44 48 49 50 51 52 55 55 56 59 59 61 64 64 64 65 62 55 47 46 48 52 55 59 62 58 55 60 60 53 52 52 52 52
54 54 53 51 53 58 67 64 56 51 53 57 31 35 47 44 48 47 50 52 54 56 56 53 58 62 65 65 64 61 58 53 54 53 55 58 58 62 65 64 69 50 54 54 56 56 62
56 62 58 56 54 62 71 72 66 59 47 58 46 28 36 44 45 44 46 48 51 53 54 58 57 58 60 66 68 67 65 62 61 60 58 58 61 69 71 64 53 51 58 65 68 68 74
61 60 64 58 57 59 67 75 75 72 57 59 54 34 30 31 34 46 49 49 48 48 49 53 60 62 60 61 63 65 72 65 68 67 64 63 62 66 72 75 66 57 62 70 77 86 84
64 69 66 61 59 61 66 77 83 81 68 58 63 50 33 31 26 29 45 52 54 50 48 49 53 59 61 60 61 61 60 59 67 67 71 71 72 70 69 67 54 52 70 77 92 86 88
76 80 69 64 67 66 69 74 86 88 81 73 71 63 50 40 29 28 30 30 48 56 54 53 56 56 60 63 61 60 53 53 57 55 61 67 70 74 68 70 64 52 68 82 86 87 91
87 82 74 66 71 72 76 77 84 92 93 93 87 82 72 58 44 40 40 40 36 50 58 60 59 56 58 61 59 56 55 55 55 62 60 60 59 62 59 57 54 60 62 73 85 89 89

GFSGBSN_prec_cthk_045.txt.gz
RH
37 43 41 37 42 41 39 41 43 41 44 54 64 74 81 81 77 84 78 67 63 65 67 76 82 84 88 75 48 63 61 63 68 65 59 61 49 51 52 51 60 66 62 59 55 45 40
40 45 43 39 41 42 40 43 42 43 58 66 72 81 95 93 78 91 75 65 62 67 66 61 78 89 94 78 58 65 63 67 75 70 60 63 53 56 59 55 51 64 70 66 61 54 49
40 44 44 41 42 41 44 44 38 48 60 67 62 67 74 98 79 89 73 62 64 74 68 64 69 83 94 78 63 56 79 69 75 77 65 65 62 69 60 61 57 59 67 70 64 59 53
38 46 43 40 40 42 43 38 41 50 57 55 56 56 66 96 85 76 64 67 66 68 70 74 74 81 80 74 64 67 89 73 78 75 69 73 70 72 72 70 60 57 64 69 67 62 56
40 47 45 40 41 41 42 40 43 49 54 38 47 46 67 84 75 61 60 66 66 64 72 74 76 89 87 67 45 66 78 77 80 82 70 72 72 75 72 70 67 55 52 59 58 61 56
41 49 49 40 42 43 41 35 42 45 54 41 42 39 61 86 87 63 66 72 71 72 74 76 87 86 74 65 48 60 76 72 86 90 73 72 81 80 71 71 63 47 45 46 51 58 55
37 46 50 42 43 41 42 36 44 45 53 45 44 48 51 72 88 78 76 80 91 87 73 76 83 91 83 70 78 91 83 75 87 87 75 81 86 76 58 47 53 49 46 47 49 53 53
37 44 52 42 42 42 45 38 47 42 48 45 47 49 40 49 59 69 77 78 71 78 71 65 79 88 78 82 78 90 87 85 83 68 73 91 88 75 71 64 59 57 50 48 54 48 50
41 40 48 41 34 42 45 41 52 41 43 49 51 51 51 43 51 70 71 75 78 84 95 85 92 87 88 84 79 87 82 87 86 72 78 80 83 84 80 73 65 59 52 48 54 50 45
38 41 43 43 35 39 46 41 50 48 45 50 54 51 53 51 50 58 74 76 80 85 96 90 94 96 87 95 90 78 77 86 96 83 88 92 87 92 84 79 65 60 57 53 56 52 38
39 40 38 42 40 25 40 40 45 50 41 47 52 55 49 46 55 64 74 81 88 95 92 98 98 95 97 88 93 98 96 98 96 95 96 95 93 87 83 78 70 69 57 52 54 57 55
37 39 39 42 46 29 24 33 39 46 41 44 46 52 55 48 42 58 66 75 83 95 96 95 85 93 92 93 92 92 96 98 96 97 96 96 95 93 85 81 73 68 55 52 55 60 66
35 36 40 42 47 41 26 30 25 36 38 41 42 49 54 54 58 54 55 65 74 78 85 84 83 81 84 84 90 94 97 98 97 99 99 98 97 97 92 85 78 64 58 64 70 77 61
34 35 42 40 47 51 38 30 17 24 35 40 41 46 48 51 51 57 58 59 62 72 70 70 74 76 81 84 80 91 91 95 95 95 98 98 98 98 96 88 74 65 62 66 59 59 55
33 34 41 42 44 44 56 46 26 18 28 36 40 41 44 48 50 51 56 57 73 71 68 71 73 79 85 86 86 83 80 83 85 87 94 97 97 97 97 91 86 82 79 62 54 47 48
36 34 40 43 41 46 46 51 55 21 22 33 41 41 42 42 47 55 55 60 68 68 63 64 70 75 75 79 80 77 76 75 77 78 78 81 93 95 94 96 96 95 78 81 74 73 53
36 38 40 42 46 45 43 41 46 42 17 29 41 45 38 41 45 54 63 65 58 57 55 57 56 59 66 73 76 73 70 72 70 72 71 75 76 89 82 85 87 92 89 77 75 69 65
34 44 40 44 44 46 46 40 38 51 25 30 40 52 41 40 49 48 54 58 55 55 53 53 53 51 50 60 69 67 66 67 69 70 69 69 75 81 80 72 74 76 75 73 74 78 63
38 39 39 43 40 39 40 37 40 42 35 24 39 48 47 44 53 51 50 52 57 53 48 46 49 51 49 50 53 55 56 58 61 66 69 65 69 81 77 69 66 68 68 63 60 61 71
42 40 41 40 40 42 40 36 37 39 43 28 40 52 53 51 53 52 51 49 49 50 48 47 47 45 46 50 49 53 53 55 56 59 62 63 61 65 63 66 58 66 58 58 60 69 53
43 43 44 41 42 41 44 45 41 39 34 38 41 52 52 58 50 53 53 49 48 50 50 49 51 51 51 51 53 54 55 54 54 52 51 56 69 65 51 52 57 60 56 57 62 57 59
43 47 44 41 43 43 46 49 49 39 34 59 39 48 51 50 51 50 52 57 55 54 54 52 52 53 53 52 50 54 52 49 50 51 49 52 66 64 62 55 53 53 51 51 52 52 49
48 48 45 44 46 48 48 48 54 43 37 48 60 39 52 49 49 50 51 53 54 54 55 57 56 57 58 58 57 56 55 54 48 48 50 51 58 62 60 55 55 53 45 45 47 48 46
52 50 47 47 49 50 51 52 53 53 45 46 58 53 42 46 48 49 52 53 54 54 53 50 54 58 60 62 63 62 61 61 50 48 48 52 58 59 63 62 64 46 46 46 46 47 47
57 55 48 53 52 51 49 53 57 63 51 52 45 61 52 36 46 48 51 53 54 54 55 54 55 56 56 63 62 63 61 58 55 51 51 53 57 65 63 59 49 44 49 53 56 56 51
50 53 54 57 56 59 54 57 58 66 67 58 56 52 61 39 35 44 50 53 53 51 50 53 57 58 58 59 59 58 65 60 64 63 57 56 58 62 66 66 62 56 54 57 63 69 62
55 62 63 63 64 61 55 59 65 68 72 73 65 65 64 59 29 29 41 52 57 57 54 53 53 59 58 58 60 58 56 54 60 62 66 64 63 65 62 62 51 47 57 62 76 76 75
61 67 66 69 69 67 62 63 69 75 79 82 84 77 80 72 48 30 26 28 37 58 59 60 56 55 61 61 59 57 53 53 51 50 52 59 65 66 62 66 58 46 57 67 69 76 82
62 65 69 69 70 70 69 70 76 81 84 85 90 87 93 94 76 46 34 33 31 33 48 55 60 59 59 59 56 57 55 50 47 52 52 56 49 56 58 57 52 51 55 61 67 75 85

GFSGBSN_prec_cthk_048.txt.gz
RH
43 41 44 40 43 39 42 37 39 41 43 50 54 58 65 77 94 87 84 76 70 66 67 67 69 79 95 88 66 64 52 85 75 70 61 50 50 50 49 46 62 73 65 57 59 62 68
44 44 45 41 44 38 36 34 45 44 46 48 55 53 50 74 93 81 80 74 68 65 65 62 65 76 91 96 78 65 67 81 82 83 69 55 49 53 53 52 51 60 71 69 60 54 55
44 44 45 40 43 38 37 38 46 44 50 50 54 50 52 78 92 77 71 64 65 60 64 66 57 74 86 89 85 60 69 80 88 86 83 60 54 63 64 58 55 64 74 74 65 53 56
40 44 46 40 41 35 38 40 42 44 47 48 54 43 53 75 82 72 67 54 61 60 62 72 63 67 74 72 81 69 77 90 96 94 80 67 62 72 69 65 60 59 71 74 70 66 62
37 42 41 38 37 36 39 41 44 45 45 50 48 43 52 67 77 74 60 60 64 61 63 70 66 73 79 76 72 69 82 87 81 90 82 69 64 72 80 65 70 62 61 65 64 64 68
33 37 37 35 31 38 41 42 44 42 47 52 48 42 54 64 69 62 69 70 69 72 71 72 86 86 79 83 69 81 88 89 86 95 94 76 68 72 78 76 72 53 49 49 55 57 62
33 33 34 37 34 36 41 42 43 41 48 52 52 42 51 68 69 74 76 78 93 85 76 89 88 83 84 79 68 81 93 86 82 98 94 81 71 60 53 53 55 58 57 49 46 51 56
35 32 37 38 35 32 38 42 41 42 50 48 48 47 52 65 68 71 73 65 66 70 72 69 76 77 76 75 81 89 97 88 94 86 75 73 63 55 64 65 66 64 59 52 51 51 50
35 32 36 37 34 30 31 40 38 37 44 49 49 46 45 52 71 81 73 74 68 75 86 85 85 78 84 73 85 94 84 88 87 77 78 72 64 66 64 66 68 61 57 56 53 52 49
34 32 33 37 34 30 25 30 29 34 40 46 46 50 46 48 58 65 73 76 76 84 91 86 79 86 93 97 98 88 80 84 88 78 85 74 75 76 78 73 68 66 59 58 61 56 56
33 30 33 37 37 38 29 25 23 23 31 42 45 48 55 47 58 66 68 79 88 92 97 97 83 74 91 97 94 93 82 91 81 72 74 79 74 82 86 79 73 72 65 61 61 59 64
34 30 35 38 36 42 39 33 23 18 23 36 40 46 49 57 61 60 63 71 82 91 98 93 94 87 88 90 91 89 84 83 88 82 77 86 87 89 92 90 81 77 76 68 63 62 70
34 31 34 37 40 38 41 43 42 20 18 31 38 44 49 54 57 62 60 64 73 80 93 93 94 93 94 94 89 82 88 91 93 95 97 94 93 91 95 96 87 82 81 86 83 80 67
33 32 35 37 40 38 38 42 42 44 17 25 36 40 44 48 53 53 60 59 66 73 76 77 83 83 91 87 88 96 98 98 97 93 95 99 98 97 93 93 92 83 73 77 70 74 61
32 34 35 39 38 41 36 40 39 43 33 19 30 37 40 46 46 54 57 60 70 74 68 72 74 76 81 79 78 89 96 95 95 95 98 98 97 97 96 92 89 88 88 68 70 53 65
37 34 37 37 37 37 37 37 39 37 42 20 27 37 40 42 49 55 56 62 67 66 63 67 70 73 79 80 82 80 81 82 84 86 85 87 98 97 97 97 94 90 79 81 81 81 62
34 33 36 35 36 34 33 33 32 37 39 31 28 40 42 39 50 57 58 63 58 55 54 58 61 63 68 72 72 69 71 73 74 79 79 81 83 96 97 98 94 90 86 74 72 72 78
33 39 33 34 35 34 36 36 32 28 36 29 35 46 43 39 52 52 55 56 53 54 52 52 49 52 58 63 69 64 67 67 67 69 73 75 77 92 87 86 88 94 92 81 87 79 67
34 37 35 34 35 35 34 33 36 32 28 32 38 39 46 44 58 52 50 50 56 53 50 48 51 52 47 49 55 61 61 63 63 66 69 67 79 87 82 77 77 82 83 90 78 79 85
36 38 37 36 34 34 38 38 33 32 31 31 45 46 54 51 51 59 52 51 52 50 50 47 47 46 46 46 45 49 50 52 53 58 61 64 67 74 80 75 71 71 70 74 78 83 73
37 40 41 37 35 36 36 39 34 29 37 41 46 56 50 59 57 56 57 53 52 52 51 46 48 51 52 51 51 51 54 53 52 52 54 59 76 69 59 60 64 66 62 63 68 63 67
40 43 40 39 38 36 40 41 39 29 35 41 44 60 48 51 52 53 56 61 58 56 53 51 52 52 52 54 51 52 51 50 48 50 48 50 64 65 65 57 54 57 56 56 57 58 57
41 44 42 40 39 39 42 43 44 38 34 44 44 48 65 52 51 52 59 58 57 58 59 59 57 57 58 62 57 56 54 54 55 50 48 51 56 59 67 57 56 61 49 45 45 48 50
39 42 40 42 42 43 43 46 50 47 36 42 47 48 62 67 50 56 57 58 59 58 59 51 55 59 63 61 61 58 58 59 59 53 46 49 54 60 65 61 68 42 42 44 44 43 46
39 41 44 48 48 48 48 47 48 49 51 41 42 48 56 61 55 47 53 57 57 58 58 57 57 56 55 58 65 65 63 61 56 55 51 50 57 65 65 65 47 41 46 48 51 50 45
42 45 49 51 53 54 53 52 54 53 55 58 50 44 55 57 70 44 43 53 60 60 59 56 58 56 57 59 59 59 65 60 66 65 58 56 57 61 65 63 62 56 54 52 55 64 55
42 46 48 52 51 53 57 58 59 55 62 65 68 61 64 70 59 60 41 48 56 60 58 60 57 57 57 60 60 57 57 54 58 60 68 68 66 69 67 64 52 49 52 56 69 68 63
44 46 49 51 47 51 57 58 60 62 66 68 72 73 72 81 79 73 57 28 33 49 64 63 61 58 62 62 59 58 52 53 52 50 54 57 64 67 65 68 64 48 53 62 64 68 71
46 46 49 50 52 51 59 61 61 61 66 72 72 76 78 85 81 84 79 53 34 31 42 61 65 68 68 64 58 55 56 52 53 56 49 56 49 52 52 57 53 54 55 57 59 63 71